Time,TemperatureF,DewpointF,PressureIn,WindDirection,WindDirectionDegrees,WindSpeedMPH,WindSpeedGustMPH,Humidity,HourlyPrecipIn,Conditions,Clouds,dailyrainin,SoftwareType,DateUTC
2013-02-07 00:00:00,45.7,31.8,30.24,East,86,3.0,3.0,58,0.00,,,0.00,Wunderground v.1.15,2013-02-07 05:00:00,
2013-02-07 00:03:00,45.6,32.1,30.24,ENE,72,1.0,3.0,59,0.00,,,0.00,Wunderground v.1.15,2013-02-07 05:03:00,
2013-02-07 00:04:00,45.5,32.0,30.24,ENE,72,2.0,3.0,59,0.00,,,0.00,Wunderground v.1.15,2013-02-07 05:04:00,
2013-02-07 00:06:00,45.4,32.3,30.23,NE,36,2.0,3.0,60,0.00,,,0.00,Wunderground v.1.15,2013-02-07 05:06:00,
2013-02-07 00:07:00,45.3,32.2,30.23,East,86,3.0,3.0,60,0.00,,,0.00,Wunderground v.1.15,2013-02-07 05:07:00,
2013-02-07 00:09:00,45.2,32.5,30.23,ENE,77,1.0,3.0,61,0.00,,,0.00,Wunderground v.1.15,2013-02-07 05:09:00,
2013-02-07 00:10:00,45.2,32.5,30.23,ENE,77,1.0,2.0,61,0.00,,,0.00,Wunderground v.1.15,2013-02-07 05:10:00,
2013-02-07 00:13:00,45.0,32.8,30.24,ENE,70,1.0,3.0,62,0.00,,,0.00,Wunderground v.1.15,2013-02-07 05:13:00,
2013-02-07 00:16:00,44.9,33.5,30.23,ENE,78,1.0,3.0,64,0.00,,,0.00,Wunderground v.1.15,2013-02-07 05:16:00,
2013-02-07 00:17:00,44.9,33.5,30.24,ENE,78,0.0,3.0,64,0.00,,,0.00,Wunderground v.1.15,2013-02-07 05:17:00,
2013-02-07 00:21:00,44.7,34.4,30.24,ENE,78,2.0,2.0,67,0.00,,,0.00,Wunderground v.1.15,2013-02-07 05:21:00,
2013-02-07 00:23:00,44.6,34.3,30.23,ENE,75,0.0,2.0,67,0.00,,,0.00,Wunderground v.1.15,2013-02-07 05:23:00,
2013-02-07 00:24:00,44.6,34.3,30.23,ENE,75,1.0,2.0,67,0.00,,,0.00,Wunderground v.1.15,2013-02-07 05:24:00,
2013-02-07 00:28:00,44.4,34.9,30.23,ENE,63,2.0,2.0,69,0.00,,,0.00,Wunderground v.1.15,2013-02-07 05:28:00,
2013-02-07 00:30:00,44.3,34.8,30.23,ENE,74,0.0,1.0,69,0.00,,,0.00,Wunderground v.1.15,2013-02-07 05:30:00,
2013-02-07 00:31:00,44.3,34.8,30.24,ENE,72,0.0,1.0,69,0.00,,,0.00,Wunderground v.1.15,2013-02-07 05:31:00,
2013-02-07 00:34:00,44.2,35.4,30.23,ENE,72,1.0,1.0,71,0.00,,,0.00,Wunderground v.1.15,2013-02-07 05:34:00,
2013-02-07 00:38:00,44.1,35.6,30.23,East,80,1.0,2.0,72,0.00,,,0.00,Wunderground v.1.15,2013-02-07 05:38:00,
2013-02-07 00:39:00,44.1,35.6,30.23,ENE,74,2.0,2.0,72,0.00,,,0.00,Wunderground v.1.15,2013-02-07 05:39:00,
2013-02-07 00:41:00,44.0,35.6,30.23,NE,34,3.0,3.0,72,0.00,,,0.00,Wunderground v.1.15,2013-02-07 05:41:00,
2013-02-07 00:44:00,44.0,35.9,30.23,ENE,69,2.0,3.0,73,0.00,,,0.00,Wunderground v.1.15,2013-02-07 05:44:00,
2013-02-07 00:45:00,44.0,35.9,30.23,East,79,2.0,3.0,73,0.00,,,0.00,Wunderground v.1.15,2013-02-07 05:45:00,
2013-02-07 00:51:00,43.9,36.1,30.23,East,79,2.0,3.0,74,0.00,,,0.00,Wunderground v.1.15,2013-02-07 05:51:00,
2013-02-07 00:52:00,43.9,36.1,30.23,East,79,3.0,3.0,74,0.00,,,0.00,Wunderground v.1.15,2013-02-07 05:52:00,
2013-02-07 00:53:00,43.9,36.1,30.23,ENE,75,0.0,3.0,74,0.00,,,0.00,Wunderground v.1.15,2013-02-07 05:53:00,
2013-02-07 00:55:00,43.9,36.1,30.23,East,99,1.0,3.0,74,0.00,,,0.00,Wunderground v.1.15,2013-02-07 05:55:00,
2013-02-07 00:58:00,43.8,36.0,30.23,ENE,69,2.0,4.0,74,0.00,,,0.00,Wunderground v.1.15,2013-02-07 05:58:00,
2013-02-07 00:59:00,43.8,36.0,30.23,ENE,72,1.0,4.0,74,0.00,,,0.00,Wunderground v.1.15,2013-02-07 05:59:00,
2013-02-07 01:00:00,43.8,36.0,30.23,ENE,76,2.0,2.0,74,0.00,,,0.00,Wunderground v.1.15,2013-02-07 06:00:00,
2013-02-07 01:01:00,43.8,36.0,30.23,ENE,75,1.0,2.0,74,0.00,,,0.00,Wunderground v.1.15,2013-02-07 06:01:00,
2013-02-07 01:05:00,43.7,36.3,30.23,ENE,71,2.0,3.0,75,0.00,,,0.00,Wunderground v.1.15,2013-02-07 06:05:00,
2013-02-07 01:06:00,43.6,36.2,30.23,ENE,61,2.0,3.0,75,0.00,,,0.00,Wunderground v.1.15,2013-02-07 06:06:00,
2013-02-07 01:10:00,43.5,36.1,30.23,ENE,76,1.0,2.0,75,0.00,,,0.00,Wunderground v.1.15,2013-02-07 06:10:00,
2013-02-07 01:11:00,43.5,36.1,30.22,ENE,69,2.0,2.0,75,0.00,,,0.00,Wunderground v.1.15,2013-02-07 06:11:00,
2013-02-07 01:13:00,43.4,36.3,30.22,East,84,2.0,3.0,76,0.00,,,0.00,Wunderground v.1.15,2013-02-07 06:13:00,
2013-02-07 01:14:00,43.4,36.3,30.23,East,89,0.0,3.0,76,0.00,,,0.00,Wunderground v.1.15,2013-02-07 06:14:00,
2013-02-07 01:15:00,43.4,36.3,30.22,East,90,2.0,3.0,76,0.00,,,0.00,Wunderground v.1.15,2013-02-07 06:15:00,
2013-02-07 01:20:00,43.2,36.1,30.22,ENE,72,2.0,2.0,76,0.00,,,0.00,Wunderground v.1.15,2013-02-07 06:20:00,
2013-02-07 01:21:00,43.1,36.4,30.22,ENE,68,1.0,2.0,77,0.00,,,0.00,Wunderground v.1.15,2013-02-07 06:21:00,
2013-02-07 01:23:00,43.0,36.3,30.23,NE,51,1.0,2.0,77,0.00,,,0.00,Wunderground v.1.15,2013-02-07 06:23:00,
2013-02-07 01:25:00,43.0,36.3,30.23,ESE,105,1.0,2.0,77,0.00,,,0.00,Wunderground v.1.15,2013-02-07 06:25:00,
2013-02-07 01:29:00,43.0,36.3,30.23,ENE,67,2.0,2.0,77,0.00,,,0.00,Wunderground v.1.15,2013-02-07 06:29:00,
2013-02-07 01:30:00,43.0,36.3,30.23,ENE,69,2.0,2.0,77,0.00,,,0.00,Wunderground v.1.15,2013-02-07 06:30:00,
2013-02-07 01:31:00,42.9,36.2,30.23,ENE,70,2.0,2.0,77,0.00,,,0.00,Wunderground v.1.15,2013-02-07 06:31:00,
2013-02-07 01:33:00,43.0,36.3,30.23,ENE,58,1.0,4.0,77,0.00,,,0.00,Wunderground v.1.15,2013-02-07 06:33:00,
2013-02-07 01:34:00,43.0,36.3,30.23,WNW,288,1.0,4.0,77,0.00,,,0.00,Wunderground v.1.15,2013-02-07 06:34:00,
2013-02-07 01:35:00,43.0,36.3,30.23,East,84,1.0,4.0,77,0.00,,,0.00,Wunderground v.1.15,2013-02-07 06:35:00,
2013-02-07 01:41:00,42.8,36.4,30.23,NE,46,3.0,3.0,78,0.00,,,0.00,Wunderground v.1.15,2013-02-07 06:41:00,
2013-02-07 01:42:00,42.8,36.4,30.23,NE,39,2.0,3.0,78,0.00,,,0.00,Wunderground v.1.15,2013-02-07 06:42:00,
2013-02-07 01:43:00,42.8,36.4,30.23,East,96,1.0,3.0,78,0.00,,,0.00,Wunderground v.1.15,2013-02-07 06:43:00,
2013-02-07 01:47:00,42.7,36.3,30.23,NE,50,3.0,3.0,78,0.00,,,0.00,Wunderground v.1.15,2013-02-07 06:47:00,
2013-02-07 01:48:00,42.7,36.3,30.23,ENE,67,3.0,3.0,78,0.00,,,0.00,Wunderground v.1.15,2013-02-07 06:48:00,
2013-02-07 01:49:00,42.6,36.2,30.23,ENE,65,3.0,3.0,78,0.00,,,0.00,Wunderground v.1.15,2013-02-07 06:49:00,
2013-02-07 01:54:00,42.5,36.4,30.23,NE,49,3.0,5.0,79,0.00,,,0.00,Wunderground v.1.15,2013-02-07 06:54:00,
2013-02-07 01:55:00,42.5,36.8,30.23,ENE,58,4.0,5.0,80,0.00,,,0.00,Wunderground v.1.15,2013-02-07 06:55:00,
2013-02-07 01:59:00,42.4,36.7,30.23,ENE,72,4.0,5.0,80,0.00,,,0.00,Wunderground v.1.15,2013-02-07 06:59:00,
2013-02-07 02:00:00,42.3,36.6,30.23,NE,46,3.0,3.0,80,0.00,,,0.00,Wunderground v.1.15,2013-02-07 07:00:00,
2013-02-07 02:01:00,42.3,36.6,30.23,NE,51,1.0,3.0,80,0.00,,,0.00,Wunderground v.1.15,2013-02-07 07:01:00,
2013-02-07 02:04:00,42.3,36.6,30.23,NE,48,2.0,3.0,80,0.00,,,0.00,Wunderground v.1.15,2013-02-07 07:04:00,
2013-02-07 02:05:00,42.2,36.8,30.23,ENE,68,3.0,6.0,81,0.00,,,0.00,Wunderground v.1.15,2013-02-07 07:05:00,
2013-02-07 02:06:00,42.2,36.8,30.23,ENE,61,3.0,6.0,81,0.00,,,0.00,Wunderground v.1.15,2013-02-07 07:06:00,
2013-02-07 02:09:00,42.2,36.8,30.23,ENE,68,2.0,6.0,81,0.00,,,0.00,Wunderground v.1.15,2013-02-07 07:09:00,
2013-02-07 02:10:00,42.1,36.7,30.23,ENE,78,2.0,4.0,81,0.00,,,0.00,Wunderground v.1.15,2013-02-07 07:10:00,
2013-02-07 02:11:00,42.1,36.7,30.23,NNE,32,2.0,4.0,81,0.00,,,0.00,Wunderground v.1.15,2013-02-07 07:11:00,
2013-02-07 02:14:00,42.1,36.7,30.23,NE,49,2.0,7.0,81,0.00,,,0.00,Wunderground v.1.15,2013-02-07 07:14:00,
2013-02-07 02:15:00,42.0,36.6,30.23,ENE,70,5.0,7.0,81,0.00,,,0.00,Wunderground v.1.15,2013-02-07 07:15:00,
2013-02-07 02:16:00,42.0,36.9,30.23,ENE,69,4.0,7.0,82,0.00,,,0.00,Wunderground v.1.15,2013-02-07 07:16:00,
2013-02-07 02:19:00,42.0,36.9,30.23,East,83,2.0,7.0,82,0.00,,,0.00,Wunderground v.1.15,2013-02-07 07:19:00,
2013-02-07 02:20:00,41.9,36.8,30.23,NE,56,3.0,3.0,82,0.00,,,0.00,Wunderground v.1.15,2013-02-07 07:20:00,
2013-02-07 02:21:00,41.9,36.8,30.23,ENE,58,2.0,3.0,82,0.00,,,0.00,Wunderground v.1.15,2013-02-07 07:21:00,
2013-02-07 02:24:00,41.9,36.8,30.23,East,80,2.0,4.0,82,0.00,,,0.00,Wunderground v.1.15,2013-02-07 07:24:00,
2013-02-07 02:26:00,41.9,36.8,30.24,NE,53,1.0,4.0,82,0.00,,,0.00,Wunderground v.1.15,2013-02-07 07:26:00,
2013-02-07 02:30:00,41.7,36.9,30.23,NE,47,2.0,2.0,83,0.00,,,0.00,Wunderground v.1.15,2013-02-07 07:30:00,
2013-02-07 02:31:00,41.7,36.9,30.23,NE,56,2.0,3.0,83,0.00,,,0.00,Wunderground v.1.15,2013-02-07 07:31:00,
2013-02-07 02:35:00,41.6,36.8,30.23,ENE,75,2.0,3.0,83,0.00,,,0.00,Wunderground v.1.15,2013-02-07 07:35:00,
2013-02-07 02:36:00,41.6,36.8,30.24,ENE,78,3.0,5.0,83,0.00,,,0.00,Wunderground v.1.15,2013-02-07 07:36:00,
2013-02-07 02:40:00,41.5,37.0,30.23,ENE,69,2.0,3.0,84,0.00,,,0.00,Wunderground v.1.15,2013-02-07 07:40:00,
2013-02-07 02:41:00,41.5,37.0,30.23,East,90,3.0,3.0,84,0.00,,,0.00,Wunderground v.1.15,2013-02-07 07:41:00,
2013-02-07 02:42:00,41.5,37.0,30.23,East,86,2.0,3.0,84,0.00,,,0.00,Wunderground v.1.15,2013-02-07 07:42:00,
2013-02-07 02:45:00,41.5,37.0,30.23,ENE,76,0.0,3.0,84,0.00,,,0.00,Wunderground v.1.15,2013-02-07 07:45:00,
2013-02-07 02:46:00,41.4,36.9,30.23,ENE,69,2.0,3.0,84,0.00,,,0.00,Wunderground v.1.15,2013-02-07 07:46:00,
2013-02-07 02:47:00,41.4,36.9,30.23,ENE,72,3.0,3.0,84,0.00,,,0.00,Wunderground v.1.15,2013-02-07 07:47:00,
2013-02-07 02:50:00,41.3,36.8,30.23,ENE,72,1.0,2.0,84,0.00,,,0.00,Wunderground v.1.15,2013-02-07 07:50:00,
2013-02-07 02:51:00,41.3,36.8,30.24,ENE,72,2.0,2.0,84,0.00,,,0.00,Wunderground v.1.15,2013-02-07 07:51:00,
2013-02-07 02:52:00,41.3,36.8,30.24,ENE,72,1.0,2.0,84,0.00,,,0.00,Wunderground v.1.15,2013-02-07 07:52:00,
2013-02-07 02:55:00,41.3,36.8,30.24,ENE,72,2.0,3.0,84,0.00,,,0.00,Wunderground v.1.15,2013-02-07 07:55:00,
2013-02-07 02:56:00,41.2,37.0,30.24,ENE,71,1.0,3.0,85,0.00,,,0.00,Wunderground v.1.15,2013-02-07 07:56:00,
2013-02-07 02:57:00,41.2,37.0,30.24,ENE,65,2.0,3.0,85,0.00,,,0.00,Wunderground v.1.15,2013-02-07 07:57:00,
2013-02-07 03:01:00,41.2,37.0,30.23,ENE,76,1.0,2.0,85,0.00,,,0.00,Wunderground v.1.15,2013-02-07 08:01:00,
2013-02-07 03:02:00,41.2,37.0,30.23,ENE,77,1.0,2.0,85,0.00,,,0.00,Wunderground v.1.15,2013-02-07 08:02:00,
2013-02-07 03:06:00,41.1,36.9,30.23,East,93,1.0,2.0,85,0.00,,,0.00,Wunderground v.1.15,2013-02-07 08:06:00,
2013-02-07 03:07:00,41.1,36.9,30.23,NE,41,3.0,3.0,85,0.00,,,0.00,Wunderground v.1.15,2013-02-07 08:07:00,
2013-02-07 03:11:00,40.9,36.7,30.23,NE,48,0.0,1.0,85,0.00,,,0.00,Wunderground v.1.15,2013-02-07 08:11:00,
2013-02-07 03:12:00,40.9,36.7,30.23,NE,49,0.0,1.0,85,0.00,,,0.00,Wunderground v.1.15,2013-02-07 08:12:00,
2013-02-07 03:13:00,40.9,36.7,30.23,East,80,1.0,1.0,85,0.00,,,0.00,Wunderground v.1.15,2013-02-07 08:13:00,
2013-02-07 03:16:00,40.8,36.6,30.23,ENE,78,1.0,2.0,85,0.00,,,0.00,Wunderground v.1.15,2013-02-07 08:16:00,
2013-02-07 03:17:00,40.8,36.6,30.23,ENE,78,1.0,2.0,85,0.00,,,0.00,Wunderground v.1.15,2013-02-07 08:17:00,
2013-02-07 03:18:00,40.8,36.6,30.23,ENE,78,1.0,2.0,85,0.00,,,0.00,Wunderground v.1.15,2013-02-07 08:18:00,
2013-02-07 03:21:00,40.7,36.5,30.23,ENE,78,1.0,1.0,85,0.00,,,0.00,Wunderground v.1.15,2013-02-07 08:21:00,
2013-02-07 03:22:00,40.7,36.5,30.24,East,84,0.0,1.0,85,0.00,,,0.00,Wunderground v.1.15,2013-02-07 08:22:00,
2013-02-07 03:23:00,40.7,36.5,30.24,East,84,0.0,1.0,85,0.00,,,0.00,Wunderground v.1.15,2013-02-07 08:23:00,
2013-02-07 03:26:00,40.6,36.7,30.24,ENE,76,1.0,2.0,86,0.00,,,0.00,Wunderground v.1.15,2013-02-07 08:26:00,
2013-02-07 03:27:00,40.6,36.7,30.24,East,79,1.0,2.0,86,0.00,,,0.00,Wunderground v.1.15,2013-02-07 08:27:00,
2013-02-07 03:28:00,40.6,36.7,30.24,East,79,1.0,2.0,86,0.00,,,0.00,Wunderground v.1.15,2013-02-07 08:28:00,
2013-02-07 03:31:00,40.5,36.6,30.24,East,80,2.0,2.0,86,0.00,,,0.00,Wunderground v.1.15,2013-02-07 08:31:00,
2013-02-07 03:32:00,40.4,36.5,30.24,ENE,75,1.0,2.0,86,0.00,,,0.00,Wunderground v.1.15,2013-02-07 08:32:00,
2013-02-07 03:33:00,40.4,36.5,30.24,ENE,75,1.0,2.0,86,0.00,,,0.00,Wunderground v.1.15,2013-02-07 08:33:00,
2013-02-07 03:36:00,40.4,36.5,30.24,ENE,78,1.0,2.0,86,0.00,,,0.00,Wunderground v.1.15,2013-02-07 08:36:00,
2013-02-07 03:37:00,40.3,36.4,30.24,ENE,77,1.0,2.0,86,0.00,,,0.00,Wunderground v.1.15,2013-02-07 08:37:00,
2013-02-07 03:38:00,40.2,36.3,30.24,ENE,78,1.0,2.0,86,0.00,,,0.00,Wunderground v.1.15,2013-02-07 08:38:00,
2013-02-07 03:39:00,40.2,36.3,30.24,ENE,78,0.0,2.0,86,0.00,,,0.00,Wunderground v.1.15,2013-02-07 08:39:00,
2013-02-07 03:41:00,40.0,36.2,30.24,ENE,78,0.0,1.0,86,0.00,,,0.00,Wunderground v.1.15,2013-02-07 08:41:00,
2013-02-07 03:42:00,40.0,36.2,30.24,ENE,78,0.0,1.0,86,0.00,,,0.00,Wunderground v.1.15,2013-02-07 08:42:00,
2013-02-07 03:43:00,40.0,36.2,30.24,ENE,78,2.0,2.0,86,0.00,,,0.00,Wunderground v.1.15,2013-02-07 08:43:00,
2013-02-07 03:44:00,40.0,36.2,30.24,ENE,62,2.0,2.0,86,0.00,,,0.00,Wunderground v.1.15,2013-02-07 08:44:00,
2013-02-07 03:46:00,39.9,36.3,30.24,ENE,63,1.0,2.0,87,0.00,,,0.00,Wunderground v.1.15,2013-02-07 08:46:00,
2013-02-07 03:47:00,39.9,36.3,30.24,ENE,62,1.0,2.0,87,0.00,,,0.00,Wunderground v.1.15,2013-02-07 08:47:00,
2013-02-07 03:48:00,39.9,36.3,30.24,ENE,62,1.0,2.0,87,0.00,,,0.00,Wunderground v.1.15,2013-02-07 08:48:00,
2013-02-07 03:49:00,39.9,36.3,30.24,ENE,63,1.0,2.0,87,0.00,,,0.00,Wunderground v.1.15,2013-02-07 08:49:00,
2013-02-07 03:52:00,39.8,36.2,30.24,ENE,58,3.0,3.0,87,0.00,,,0.00,Wunderground v.1.15,2013-02-07 08:52:00,
2013-02-07 03:53:00,39.8,36.2,30.24,ENE,60,1.0,3.0,87,0.00,,,0.00,Wunderground v.1.15,2013-02-07 08:53:00,
2013-02-07 03:54:00,39.8,36.2,30.24,North,356,2.0,3.0,87,0.00,,,0.00,Wunderground v.1.15,2013-02-07 08:54:00,
2013-02-07 03:57:00,39.7,36.1,30.24,NE,36,1.0,3.0,87,0.00,,,0.00,Wunderground v.1.15,2013-02-07 08:57:00,
2013-02-07 03:58:00,39.7,36.1,30.24,NE,36,0.0,3.0,87,0.00,,,0.00,Wunderground v.1.15,2013-02-07 08:58:00,
2013-02-07 03:59:00,39.7,36.1,30.24,ENE,72,1.0,3.0,87,0.00,,,0.00,Wunderground v.1.15,2013-02-07 08:59:00,
2013-02-07 04:02:00,39.6,36.0,30.23,ENE,75,1.0,2.0,87,0.00,,,0.00,Wunderground v.1.15,2013-02-07 09:02:00,
2013-02-07 04:03:00,39.6,36.0,30.23,ENE,75,1.0,2.0,87,0.00,,,0.00,Wunderground v.1.15,2013-02-07 09:03:00,
2013-02-07 04:04:00,39.6,36.0,30.23,NE,43,2.0,2.0,87,0.00,,,0.00,Wunderground v.1.15,2013-02-07 09:04:00,
2013-02-07 04:07:00,39.5,36.0,30.23,NE,51,2.0,2.0,87,0.00,,,0.00,Wunderground v.1.15,2013-02-07 09:07:00,
2013-02-07 04:08:00,39.5,36.2,30.23,East,86,1.0,2.0,88,0.00,,,0.00,Wunderground v.1.15,2013-02-07 09:08:00,
2013-02-07 04:09:00,39.5,36.2,30.24,East,86,1.0,2.0,88,0.00,,,0.00,Wunderground v.1.15,2013-02-07 09:09:00,
2013-02-07 04:13:00,39.4,36.1,30.24,East,81,1.0,2.0,88,0.00,,,0.00,Wunderground v.1.15,2013-02-07 09:13:00,
2013-02-07 04:14:00,39.4,36.1,30.24,East,81,2.0,2.0,88,0.00,,,0.00,Wunderground v.1.15,2013-02-07 09:14:00,
2013-02-07 04:18:00,39.3,36.0,30.23,ENE,72,1.0,2.0,88,0.00,,,0.00,Wunderground v.1.15,2013-02-07 09:18:00,
2013-02-07 04:19:00,39.3,36.0,30.23,ENE,72,1.0,2.0,88,0.00,,,0.00,Wunderground v.1.15,2013-02-07 09:19:00,
2013-02-07 04:20:00,39.3,36.0,30.23,ENE,72,1.0,2.0,88,0.00,,,0.00,Wunderground v.1.15,2013-02-07 09:20:00,
2013-02-07 04:23:00,39.2,35.9,30.24,ENE,71,0.0,2.0,88,0.00,,,0.00,Wunderground v.1.15,2013-02-07 09:23:00,
2013-02-07 04:25:00,39.1,35.8,30.24,ENE,71,0.0,2.0,88,0.00,,,0.00,Wunderground v.1.15,2013-02-07 09:25:00,
2013-02-07 04:28:00,39.0,35.7,30.24,ENE,70,0.0,2.0,88,0.00,,,0.00,Wunderground v.1.15,2013-02-07 09:28:00,
2013-02-07 04:30:00,39.0,35.7,30.24,ENE,69,1.0,1.0,88,0.00,,,0.00,Wunderground v.1.15,2013-02-07 09:30:00,
2013-02-07 04:33:00,39.0,35.7,30.24,NE,51,1.0,2.0,88,0.00,,,0.00,Wunderground v.1.15,2013-02-07 09:33:00,
2013-02-07 04:34:00,39.0,35.7,30.24,NE,51,1.0,2.0,88,0.00,,,0.00,Wunderground v.1.15,2013-02-07 09:34:00,
2013-02-07 04:35:00,38.9,35.6,30.24,ENE,69,0.0,2.0,88,0.00,,,0.00,Wunderground v.1.15,2013-02-07 09:35:00,
2013-02-07 04:38:00,38.9,35.6,30.25,ENE,63,1.0,2.0,88,0.00,,,0.00,Wunderground v.1.15,2013-02-07 09:38:00,
2013-02-07 04:39:00,38.9,35.6,30.25,ENE,62,0.0,2.0,88,0.00,,,0.00,Wunderground v.1.15,2013-02-07 09:39:00,
2013-02-07 04:40:00,38.9,35.6,30.24,ENE,62,1.0,1.0,88,0.00,,,0.00,Wunderground v.1.15,2013-02-07 09:40:00,
2013-02-07 04:44:00,38.9,35.6,30.24,East,84,1.0,1.0,88,0.00,,,0.00,Wunderground v.1.15,2013-02-07 09:44:00,
2013-02-07 04:45:00,38.9,35.6,30.24,East,84,1.0,1.0,88,0.00,,,0.00,Wunderground v.1.15,2013-02-07 09:45:00,
2013-02-07 04:49:00,38.8,35.6,30.24,East,82,2.0,2.0,88,0.00,,,0.00,Wunderground v.1.15,2013-02-07 09:49:00,
2013-02-07 04:50:00,38.8,35.6,30.24,East,80,0.0,1.0,88,0.00,,,0.00,Wunderground v.1.15,2013-02-07 09:50:00,
2013-02-07 04:51:00,38.8,35.6,30.24,ENE,70,2.0,2.0,88,0.00,,,0.00,Wunderground v.1.15,2013-02-07 09:51:00,
2013-02-07 04:54:00,38.8,35.6,30.24,NE,50,1.0,2.0,88,0.00,,,0.00,Wunderground v.1.15,2013-02-07 09:54:00,
2013-02-07 04:55:00,38.8,35.8,30.24,ENE,62,1.0,2.0,89,0.00,,,0.00,Wunderground v.1.15,2013-02-07 09:55:00,
2013-02-07 04:56:00,38.8,35.6,30.24,ENE,62,0.0,2.0,88,0.00,,,0.00,Wunderground v.1.15,2013-02-07 09:56:00,
2013-02-07 04:59:00,38.8,35.6,30.24,ENE,61,1.0,2.0,88,0.00,,,0.00,Wunderground v.1.15,2013-02-07 09:59:00,
2013-02-07 05:00:00,38.8,35.6,30.24,North,351,2.0,2.0,88,0.00,,,0.00,Wunderground v.1.15,2013-02-07 10:00:00,
2013-02-07 05:01:00,38.8,35.6,30.24,NNW,340,1.0,2.0,88,0.00,,,0.00,Wunderground v.1.15,2013-02-07 10:01:00,
2013-02-07 05:04:00,38.8,35.6,30.24,NNE,12,1.0,3.0,88,0.00,,,0.00,Wunderground v.1.15,2013-02-07 10:04:00,
2013-02-07 05:05:00,38.8,35.6,30.24,NNE,18,1.0,3.0,88,0.00,,,0.00,Wunderground v.1.15,2013-02-07 10:05:00,
2013-02-07 05:07:00,38.8,35.6,30.24,NE,56,1.0,3.0,88,0.00,,,0.00,Wunderground v.1.15,2013-02-07 10:07:00,
2013-02-07 05:09:00,38.8,35.6,30.24,NNE,27,0.0,3.0,88,0.00,,,0.00,Wunderground v.1.15,2013-02-07 10:09:00,
2013-02-07 05:10:00,38.8,35.6,30.24,NNE,27,1.0,1.0,88,0.00,,,0.00,Wunderground v.1.15,2013-02-07 10:10:00,
2013-02-07 05:12:00,38.8,35.6,30.24,ENE,60,1.0,2.0,88,0.00,,,0.00,Wunderground v.1.15,2013-02-07 10:12:00,
2013-02-07 05:14:00,38.8,35.6,30.24,NNE,30,2.0,2.0,88,0.00,,,0.00,Wunderground v.1.15,2013-02-07 10:14:00,
2013-02-07 05:15:00,38.7,35.5,30.24,NNE,18,0.0,2.0,88,0.00,,,0.00,Wunderground v.1.15,2013-02-07 10:15:00,
2013-02-07 05:17:00,38.7,35.5,30.24,NNE,18,1.0,2.0,88,0.00,,,0.00,Wunderground v.1.15,2013-02-07 10:17:00,
2013-02-07 05:20:00,38.7,35.5,30.24,NW,323,1.0,3.0,88,0.00,,,0.00,Wunderground v.1.15,2013-02-07 10:20:00,
2013-02-07 05:21:00,38.7,35.5,30.24,East,101,1.0,3.0,88,0.00,,,0.00,Wunderground v.1.15,2013-02-07 10:21:00,
2013-02-07 05:22:00,38.7,35.5,30.24,East,101,0.0,3.0,88,0.00,,,0.00,Wunderground v.1.15,2013-02-07 10:22:00,
2013-02-07 05:25:00,38.7,35.5,30.24,North,355,2.0,3.0,88,0.00,,,0.00,Wunderground v.1.15,2013-02-07 10:25:00,
2013-02-07 05:26:00,38.7,35.5,30.24,NE,53,1.0,3.0,88,0.00,,,0.00,Wunderground v.1.15,2013-02-07 10:26:00,
2013-02-07 05:28:00,38.7,35.5,30.25,NNW,338,0.0,3.0,88,0.00,,,0.00,Wunderground v.1.15,2013-02-07 10:28:00,
2013-02-07 05:30:00,38.6,35.4,30.25,East,83,3.0,3.0,88,0.00,,,0.00,Wunderground v.1.15,2013-02-07 10:30:00,
2013-02-07 05:31:00,38.6,35.4,30.25,NE,52,2.0,3.0,88,0.00,,,0.00,Wunderground v.1.15,2013-02-07 10:31:00,
2013-02-07 05:33:00,38.6,35.4,30.25,NE,53,1.0,3.0,88,0.00,,,0.00,Wunderground v.1.15,2013-02-07 10:33:00,
2013-02-07 05:35:00,38.6,35.4,30.25,North,3,2.0,3.0,88,0.00,,,0.00,Wunderground v.1.15,2013-02-07 10:35:00,
2013-02-07 05:36:00,38.6,35.4,30.25,NNE,13,3.0,3.0,88,0.00,,,0.00,Wunderground v.1.15,2013-02-07 10:36:00,
2013-02-07 05:38:00,38.6,35.4,30.25,NW,321,0.0,3.0,88,0.00,,,0.00,Wunderground v.1.15,2013-02-07 10:38:00,
2013-02-07 05:40:00,38.6,35.4,30.26,NW,323,1.0,1.0,88,0.00,,,0.00,Wunderground v.1.15,2013-02-07 10:40:00,
2013-02-07 05:41:00,38.5,35.3,30.26,NW,323,0.0,1.0,88,0.00,,,0.00,Wunderground v.1.15,2013-02-07 10:41:00,
2013-02-07 05:43:00,38.5,35.3,30.26,NNE,30,1.0,2.0,88,0.00,,,0.00,Wunderground v.1.15,2013-02-07 10:43:00,
2013-02-07 05:46:00,38.4,35.2,30.26,NNW,342,1.0,2.0,88,0.00,,,0.00,Wunderground v.1.15,2013-02-07 10:46:00,
2013-02-07 05:47:00,38.4,35.2,30.26,NNW,336,1.0,2.0,88,0.00,,,0.00,Wunderground v.1.15,2013-02-07 10:47:00,
2013-02-07 05:48:00,38.4,35.2,30.26,NNE,18,2.0,2.0,88,0.00,,,0.00,Wunderground v.1.15,2013-02-07 10:48:00,
2013-02-07 05:49:00,38.4,35.2,30.26,North,350,3.0,3.0,88,0.00,,,0.00,Wunderground v.1.15,2013-02-07 10:49:00,
2013-02-07 05:51:00,38.3,35.1,30.26,NNE,33,1.0,2.0,88,0.00,,,0.00,Wunderground v.1.15,2013-02-07 10:51:00,
2013-02-07 05:52:00,38.3,35.1,30.26,NNE,32,1.0,2.0,88,0.00,,,0.00,Wunderground v.1.15,2013-02-07 10:52:00,
2013-02-07 05:53:00,38.3,35.1,30.26,NNE,32,0.0,2.0,88,0.00,,,0.00,Wunderground v.1.15,2013-02-07 10:53:00,
2013-02-07 05:54:00,38.3,35.1,30.26,NNE,32,1.0,2.0,88,0.00,,,0.00,Wunderground v.1.15,2013-02-07 10:54:00,
2013-02-07 05:56:00,38.3,35.1,30.26,NNE,29,1.0,3.0,88,0.00,,,0.00,Wunderground v.1.15,2013-02-07 10:56:00,
2013-02-07 05:57:00,38.3,35.1,30.27,NNE,26,1.0,3.0,88,0.00,,,0.00,Wunderground v.1.15,2013-02-07 10:57:00,
2013-02-07 05:58:00,38.3,35.1,30.27,NNE,26,1.0,3.0,88,0.00,,,0.00,Wunderground v.1.15,2013-02-07 10:58:00,
2013-02-07 05:59:00,38.3,35.1,30.27,North,359,3.0,3.0,88,0.00,,,0.00,Wunderground v.1.15,2013-02-07 10:59:00,
2013-02-07 06:01:00,38.2,35.0,30.27,NNE,18,2.0,3.0,88,0.00,,,0.00,Wunderground v.1.15,2013-02-07 11:01:00,
2013-02-07 06:02:00,38.2,35.0,30.27,North,11,1.0,3.0,88,0.00,,,0.00,Wunderground v.1.15,2013-02-07 11:02:00,
2013-02-07 06:03:00,38.2,35.0,30.27,North,1,1.0,3.0,88,0.00,,,0.00,Wunderground v.1.15,2013-02-07 11:03:00,
2013-02-07 06:04:00,38.1,34.9,30.27,NE,56,1.0,3.0,88,0.00,,,0.00,Wunderground v.1.15,2013-02-07 11:04:00,
2013-02-07 06:06:00,38.1,34.9,30.27,NNW,328,0.0,3.0,88,0.00,,,0.00,Wunderground v.1.15,2013-02-07 11:06:00,
2013-02-07 06:07:00,38.1,34.9,30.27,NNW,328,1.0,3.0,88,0.00,,,0.00,Wunderground v.1.15,2013-02-07 11:07:00,
2013-02-07 06:09:00,38.1,34.9,30.27,NNW,345,0.0,3.0,88,0.00,,,0.00,Wunderground v.1.15,2013-02-07 11:09:00,
2013-02-07 06:11:00,38.0,34.8,30.27,NNW,345,2.0,2.0,88,0.00,,,0.00,Wunderground v.1.15,2013-02-07 11:11:00,
2013-02-07 06:13:00,38.0,34.8,30.27,ENE,60,2.0,2.0,88,0.00,,,0.00,Wunderground v.1.15,2013-02-07 11:13:00,
2013-02-07 06:14:00,38.0,34.8,30.28,NE,37,2.0,2.0,88,0.00,,,0.00,Wunderground v.1.15,2013-02-07 11:14:00,
2013-02-07 06:16:00,38.0,34.8,30.28,NE,39,0.0,2.0,88,0.00,,,0.00,Wunderground v.1.15,2013-02-07 11:16:00,
2013-02-07 06:18:00,37.9,34.7,30.28,NE,39,0.0,2.0,88,0.00,,,0.00,Wunderground v.1.15,2013-02-07 11:18:00,
2013-02-07 06:19:00,37.9,34.7,30.28,NE,39,1.0,2.0,88,0.00,,,0.00,Wunderground v.1.15,2013-02-07 11:19:00,
2013-02-07 06:20:00,37.9,34.7,30.28,NE,39,1.0,1.0,88,0.00,,,0.00,Wunderground v.1.15,2013-02-07 11:20:00,
2013-02-07 06:21:00,37.9,34.7,30.27,NNW,338,2.0,3.0,88,0.00,,,0.00,Wunderground v.1.15,2013-02-07 11:21:00,
2013-02-07 06:23:00,37.9,34.7,30.28,NNE,16,1.0,3.0,88,0.00,,,0.00,Wunderground v.1.15,2013-02-07 11:23:00,
2013-02-07 06:24:00,37.9,34.7,30.27,NNE,15,1.0,3.0,88,0.00,,,0.00,Wunderground v.1.15,2013-02-07 11:24:00,
2013-02-07 06:25:00,37.9,34.7,30.28,NNE,16,1.0,3.0,88,0.00,,,0.00,Wunderground v.1.15,2013-02-07 11:25:00,
2013-02-07 06:26:00,37.9,34.7,30.27,NNE,13,1.0,3.0,88,0.00,,,0.00,Wunderground v.1.15,2013-02-07 11:26:00,
2013-02-07 06:28:00,37.9,34.7,30.27,North,354,1.0,3.0,88,0.00,,,0.00,Wunderground v.1.15,2013-02-07 11:28:00,
2013-02-07 06:29:00,37.9,34.7,30.27,North,354,0.0,3.0,88,0.00,,,0.00,Wunderground v.1.15,2013-02-07 11:29:00,
2013-02-07 06:30:00,37.9,34.7,30.27,North,354,0.0,1.0,88,0.00,,,0.00,Wunderground v.1.15,2013-02-07 11:30:00,
2013-02-07 06:31:00,37.9,34.7,30.27,NNE,19,1.0,3.0,88,0.00,,,0.00,Wunderground v.1.15,2013-02-07 11:31:00,
2013-02-07 06:33:00,37.8,34.6,30.27,NE,46,1.0,3.0,88,0.00,,,0.00,Wunderground v.1.15,2013-02-07 11:33:00,
2013-02-07 06:34:00,37.8,34.6,30.27,ENE,70,1.0,3.0,88,0.00,,,0.00,Wunderground v.1.15,2013-02-07 11:34:00,
2013-02-07 06:35:00,37.8,34.6,30.27,North,1,1.0,3.0,88,0.00,,,0.00,Wunderground v.1.15,2013-02-07 11:35:00,
2013-02-07 06:36:00,37.8,34.6,30.27,NNE,13,0.0,3.0,88,0.00,,,0.00,Wunderground v.1.15,2013-02-07 11:36:00,
2013-02-07 06:38:00,37.8,34.6,30.27,East,86,1.0,3.0,88,0.00,,,0.00,Wunderground v.1.15,2013-02-07 11:38:00,
2013-02-07 06:39:00,37.8,34.6,30.27,North,358,2.0,3.0,88,0.00,,,0.00,Wunderground v.1.15,2013-02-07 11:39:00,
2013-02-07 06:40:00,37.7,34.5,30.27,NNE,23,2.0,2.0,88,0.00,,,0.00,Wunderground v.1.15,2013-02-07 11:40:00,
2013-02-07 06:41:00,37.8,34.6,30.27,North,350,1.0,2.0,88,0.00,,,0.00,Wunderground v.1.15,2013-02-07 11:41:00,
2013-02-07 06:43:00,37.8,34.6,30.28,NNE,16,1.0,2.0,88,0.00,,,0.00,Wunderground v.1.15,2013-02-07 11:43:00,
2013-02-07 06:44:00,37.8,34.6,30.28,NNE,16,1.0,2.0,88,0.00,,,0.00,Wunderground v.1.15,2013-02-07 11:44:00,
2013-02-07 06:45:00,37.8,34.6,30.28,NNE,16,0.0,2.0,88,0.00,,,0.00,Wunderground v.1.15,2013-02-07 11:45:00,
2013-02-07 06:46:00,37.8,34.6,30.28,NNW,345,2.0,2.0,88,0.00,,,0.00,Wunderground v.1.15,2013-02-07 11:46:00,
2013-02-07 06:49:00,37.8,34.6,30.28,NNE,16,0.0,2.0,88,0.00,,,0.00,Wunderground v.1.15,2013-02-07 11:49:00,
2013-02-07 06:50:00,37.7,34.5,30.28,NNE,16,0.0,1.0,88,0.00,,,0.00,Wunderground v.1.15,2013-02-07 11:50:00,
2013-02-07 06:51:00,37.7,34.5,30.28,NNE,16,0.0,1.0,88,0.00,,,0.00,Wunderground v.1.15,2013-02-07 11:51:00,
2013-02-07 06:54:00,37.7,34.5,30.28,NNE,13,0.0,2.0,88,0.00,,,0.00,Wunderground v.1.15,2013-02-07 11:54:00,
2013-02-07 06:55:00,37.6,34.4,30.27,NNE,13,1.0,2.0,88,0.00,,,0.00,Wunderground v.1.15,2013-02-07 11:55:00,
2013-02-07 06:56:00,37.6,34.4,30.28,NNE,13,1.0,2.0,88,0.00,,,0.00,Wunderground v.1.15,2013-02-07 11:56:00,
2013-02-07 06:57:00,37.6,34.4,30.27,NNE,12,2.0,2.0,88,0.00,,,0.00,Wunderground v.1.15,2013-02-07 11:57:00,
2013-02-07 06:59:00,37.6,34.4,30.27,NNE,20,0.0,2.0,88,0.00,,,0.00,Wunderground v.1.15,2013-02-07 11:59:00,
2013-02-07 07:00:00,37.6,34.4,30.27,NNE,20,1.0,2.0,88,0.00,,,0.00,Wunderground v.1.15,2013-02-07 12:00:00,
2013-02-07 07:01:00,37.6,34.4,30.27,North,11,0.0,2.0,88,0.00,,,0.00,Wunderground v.1.15,2013-02-07 12:01:00,
2013-02-07 07:02:00,37.6,34.4,30.27,North,11,0.0,2.0,88,0.00,,,0.00,Wunderground v.1.15,2013-02-07 12:02:00,
2013-02-07 07:04:00,37.5,34.3,30.27,North,6,0.0,2.0,88,0.00,,,0.00,Wunderground v.1.15,2013-02-07 12:04:00,
2013-02-07 07:05:00,37.6,34.4,30.27,North,6,0.0,2.0,88,0.00,,,0.00,Wunderground v.1.15,2013-02-07 12:05:00,
2013-02-07 07:06:00,37.5,34.3,30.27,North,9,1.0,2.0,88,0.00,,,0.00,Wunderground v.1.15,2013-02-07 12:06:00,
2013-02-07 07:07:00,37.5,34.3,30.27,NW,319,2.0,2.0,88,0.00,,,0.00,Wunderground v.1.15,2013-02-07 12:07:00,
2013-02-07 07:09:00,37.5,34.3,30.27,NE,50,1.0,2.0,88,0.00,,,0.00,Wunderground v.1.15,2013-02-07 12:09:00,
2013-02-07 07:10:00,37.4,34.2,30.27,NE,50,0.0,1.0,88,0.00,,,0.00,Wunderground v.1.15,2013-02-07 12:10:00,
2013-02-07 07:11:00,37.4,34.2,30.27,NNW,333,1.0,1.0,88,0.00,,,0.00,Wunderground v.1.15,2013-02-07 12:11:00,
2013-02-07 07:12:00,37.4,34.2,30.27,NE,48,1.0,2.0,88,0.00,,,0.00,Wunderground v.1.15,2013-02-07 12:12:00,
2013-02-07 07:14:00,37.4,34.2,30.28,North,354,2.0,2.0,88,0.00,,,0.00,Wunderground v.1.15,2013-02-07 12:14:00,
2013-02-07 07:15:00,37.3,34.1,30.28,NNE,24,2.0,2.0,88,0.00,,,0.00,Wunderground v.1.15,2013-02-07 12:15:00,
2013-02-07 07:16:00,37.3,34.4,30.28,NNE,25,1.0,2.0,89,0.00,,,0.00,Wunderground v.1.15,2013-02-07 12:16:00,
2013-02-07 07:17:00,37.3,34.4,30.28,NNE,25,2.0,2.0,89,0.00,,,0.00,Wunderground v.1.15,2013-02-07 12:17:00,
2013-02-07 07:20:00,37.3,34.4,30.28,NNW,328,1.0,1.0,89,0.00,,,0.00,Wunderground v.1.15,2013-02-07 12:20:00,
2013-02-07 07:21:00,37.3,34.4,30.28,NNW,328,1.0,1.0,89,0.00,,,0.00,Wunderground v.1.15,2013-02-07 12:21:00,
2013-02-07 07:22:00,37.3,34.4,30.28,NNW,328,0.0,1.0,89,0.00,,,0.00,Wunderground v.1.15,2013-02-07 12:22:00,
2013-02-07 07:25:00,37.3,34.4,30.28,North,11,1.0,2.0,89,0.00,,,0.00,Wunderground v.1.15,2013-02-07 12:25:00,
2013-02-07 07:27:00,37.3,34.4,30.28,NE,46,1.0,2.0,89,0.00,,,0.00,Wunderground v.1.15,2013-02-07 12:27:00,
2013-02-07 07:30:00,37.3,34.4,30.28,North,5,1.0,1.0,89,0.00,,,0.00,Wunderground v.1.15,2013-02-07 12:30:00,
2013-02-07 07:32:00,37.3,34.4,30.28,NNE,13,2.0,3.0,89,0.00,,,0.00,Wunderground v.1.15,2013-02-07 12:32:00,
2013-02-07 07:33:00,37.3,34.4,30.28,NNE,24,0.0,3.0,89,0.00,,,0.00,Wunderground v.1.15,2013-02-07 12:33:00,
2013-02-07 07:35:00,37.3,34.4,30.28,NE,51,1.0,3.0,89,0.00,,,0.00,Wunderground v.1.15,2013-02-07 12:35:00,
2013-02-07 07:37:00,37.3,34.4,30.28,NNW,340,1.0,3.0,89,0.00,,,0.00,Wunderground v.1.15,2013-02-07 12:37:00,
2013-02-07 07:38:00,37.3,34.4,30.28,NNW,328,0.0,3.0,89,0.00,,,0.00,Wunderground v.1.15,2013-02-07 12:38:00,
2013-02-07 07:40:00,37.3,34.4,30.28,North,8,1.0,1.0,89,0.00,,,0.00,Wunderground v.1.15,2013-02-07 12:40:00,
2013-02-07 07:42:00,37.3,34.4,30.28,NNE,29,1.0,2.0,89,0.00,,,0.00,Wunderground v.1.15,2013-02-07 12:42:00,
2013-02-07 07:43:00,37.2,34.3,30.28,NNE,16,1.0,3.0,89,0.00,,,0.00,Wunderground v.1.15,2013-02-07 12:43:00,
2013-02-07 07:45:00,37.2,34.3,30.28,North,360,1.0,3.0,89,0.00,,,0.00,Wunderground v.1.15,2013-02-07 12:45:00,
2013-02-07 07:47:00,37.2,34.3,30.28,ENE,58,2.0,4.0,89,0.00,,,0.00,Wunderground v.1.15,2013-02-07 12:47:00,
2013-02-07 07:49:00,37.2,34.3,30.28,NNE,12,2.0,4.0,89,0.00,,,0.00,Wunderground v.1.15,2013-02-07 12:49:00,
2013-02-07 07:50:00,37.2,34.3,30.28,NNE,23,2.0,2.0,89,0.00,,,0.00,Wunderground v.1.15,2013-02-07 12:50:00,
2013-02-07 07:52:00,37.2,34.3,30.28,WSW,255,1.0,2.0,89,0.00,,,0.00,Wunderground v.1.15,2013-02-07 12:52:00,
2013-02-07 07:54:00,37.1,34.2,30.28,NNE,32,0.0,2.0,89,0.00,,,0.00,Wunderground v.1.15,2013-02-07 12:54:00,
2013-02-07 07:55:00,37.2,34.3,30.28,NNE,12,1.0,2.0,89,0.00,,,0.00,Wunderground v.1.15,2013-02-07 12:55:00,
2013-02-07 07:56:00,37.2,34.3,30.28,NNE,20,1.0,2.0,89,0.00,,,0.00,Wunderground v.1.15,2013-02-07 12:56:00,
2013-02-07 07:57:00,37.2,34.3,30.28,NNE,29,1.0,2.0,89,0.00,,,0.00,Wunderground v.1.15,2013-02-07 12:57:00,
2013-02-07 07:59:00,37.2,34.3,30.28,NE,37,2.0,2.0,89,0.00,,,0.00,Wunderground v.1.15,2013-02-07 12:59:00,
2013-02-07 08:00:00,37.2,34.3,30.28,NNE,30,1.0,2.0,89,0.00,,,0.00,Wunderground v.1.15,2013-02-07 13:00:00,
2013-02-07 08:01:00,37.2,34.3,30.28,NE,37,2.0,2.0,89,0.00,,,0.00,Wunderground v.1.15,2013-02-07 13:01:00,
2013-02-07 08:02:00,37.2,34.3,30.28,North,352,2.0,2.0,89,0.00,,,0.00,Wunderground v.1.15,2013-02-07 13:02:00,
2013-02-07 08:04:00,37.2,34.3,30.28,NNE,26,1.0,2.0,89,0.00,,,0.00,Wunderground v.1.15,2013-02-07 13:04:00,
2013-02-07 08:06:00,37.3,34.4,30.28,NE,37,2.0,3.0,89,0.00,,,0.00,Wunderground v.1.15,2013-02-07 13:06:00,
2013-02-07 08:07:00,37.3,34.4,30.28,NE,35,0.0,3.0,89,0.00,,,0.00,Wunderground v.1.15,2013-02-07 13:07:00,
2013-02-07 08:09:00,37.3,34.4,30.28,North,7,2.0,3.0,89,0.00,,,0.00,Wunderground v.1.15,2013-02-07 13:09:00,
2013-02-07 08:11:00,37.4,34.5,30.28,NNE,31,0.0,3.0,89,0.00,,,0.00,Wunderground v.1.15,2013-02-07 13:11:00,
2013-02-07 08:12:00,37.4,34.5,30.28,NE,53,2.0,3.0,89,0.00,,,0.00,Wunderground v.1.15,2013-02-07 13:12:00,
2013-02-07 08:14:00,37.5,34.6,30.28,ENE,70,0.0,3.0,89,0.00,,,0.00,Wunderground v.1.15,2013-02-07 13:14:00,
2013-02-07 08:16:00,37.5,34.6,30.28,ENE,69,1.0,3.0,89,0.00,,,0.00,Wunderground v.1.15,2013-02-07 13:16:00,
2013-02-07 08:17:00,37.6,34.7,30.28,ENE,68,1.0,3.0,89,0.00,,,0.00,Wunderground v.1.15,2013-02-07 13:17:00,
2013-02-07 08:19:00,37.7,34.8,30.28,East,81,2.0,3.0,89,0.00,,,0.00,Wunderground v.1.15,2013-02-07 13:19:00,
2013-02-07 08:21:00,37.7,34.8,30.28,ENE,78,1.0,4.0,89,0.00,,,0.00,Wunderground v.1.15,2013-02-07 13:21:00,
2013-02-07 08:22:00,37.8,34.8,30.28,NNE,13,3.0,4.0,89,0.00,,,0.00,Wunderground v.1.15,2013-02-07 13:22:00,
2013-02-07 08:24:00,38.0,35.0,30.28,ENE,65,1.0,4.0,89,0.00,,,0.00,Wunderground v.1.15,2013-02-07 13:24:00,
2013-02-07 08:26:00,38.1,35.1,30.28,ENE,69,1.0,4.0,89,0.00,,,0.00,Wunderground v.1.15,2013-02-07 13:26:00,
2013-02-07 08:28:00,38.2,35.2,30.28,NE,46,2.0,4.0,89,0.00,,,0.00,Wunderground v.1.15,2013-02-07 13:28:00,
2013-02-07 08:29:00,38.3,35.3,30.28,North,11,1.0,4.0,89,0.00,,,0.00,Wunderground v.1.15,2013-02-07 13:29:00,
2013-02-07 08:31:00,38.4,35.4,30.28,East,79,2.0,3.0,89,0.00,,,0.00,Wunderground v.1.15,2013-02-07 13:31:00,
2013-02-07 08:33:00,38.5,35.5,30.28,ENE,65,1.0,3.0,89,0.00,,,0.00,Wunderground v.1.15,2013-02-07 13:33:00,
2013-02-07 08:34:00,38.6,35.6,30.28,ENE,75,2.0,3.0,89,0.00,,,0.00,Wunderground v.1.15,2013-02-07 13:34:00,
2013-02-07 08:36:00,38.7,35.5,30.28,ESE,105,4.0,5.0,88,0.00,,,0.00,Wunderground v.1.15,2013-02-07 13:36:00,
2013-02-07 08:38:00,38.8,35.6,30.28,ENE,65,4.0,5.0,88,0.00,,,0.00,Wunderground v.1.15,2013-02-07 13:38:00,
2013-02-07 08:39:00,38.8,35.6,30.28,NNE,16,3.0,5.0,88,0.00,,,0.00,Wunderground v.1.15,2013-02-07 13:39:00,
2013-02-07 08:42:00,38.9,35.6,30.28,ENE,61,4.0,4.0,88,0.00,,,0.00,Wunderground v.1.15,2013-02-07 13:42:00,
2013-02-07 08:43:00,39.0,35.7,30.28,NNE,16,1.0,4.0,88,0.00,,,0.00,Wunderground v.1.15,2013-02-07 13:43:00,
2013-02-07 08:44:00,39.1,35.8,30.28,ENE,58,2.0,4.0,88,0.00,,,0.00,Wunderground v.1.15,2013-02-07 13:44:00,
2013-02-07 08:47:00,39.2,35.9,30.28,NE,46,2.0,6.0,88,0.00,,,0.00,Wunderground v.1.15,2013-02-07 13:47:00,
2013-02-07 08:48:00,39.2,35.7,30.28,NNE,23,2.0,6.0,87,0.00,,,0.00,Wunderground v.1.15,2013-02-07 13:48:00,
2013-02-07 08:49:00,39.3,35.8,30.28,NW,322,1.0,6.0,87,0.00,,,0.00,Wunderground v.1.15,2013-02-07 13:49:00,
2013-02-07 08:52:00,39.4,35.9,30.28,NE,51,2.0,4.0,87,0.00,,,0.00,Wunderground v.1.15,2013-02-07 13:52:00,
2013-02-07 08:53:00,39.5,36.0,30.28,NE,37,1.0,4.0,87,0.00,,,0.00,Wunderground v.1.15,2013-02-07 13:53:00,
2013-02-07 08:54:00,39.5,36.0,30.28,ENE,65,2.0,4.0,87,0.00,,,0.00,Wunderground v.1.15,2013-02-07 13:54:00,
2013-02-07 08:57:00,39.6,36.0,30.28,NNE,23,2.0,4.0,87,0.00,,,0.00,Wunderground v.1.15,2013-02-07 13:57:00,
2013-02-07 08:58:00,39.7,36.1,30.28,East,86,1.0,4.0,87,0.00,,,0.00,Wunderground v.1.15,2013-02-07 13:58:00,
2013-02-07 09:00:00,39.7,36.1,30.28,ENE,75,4.0,4.0,87,0.00,,,0.00,Wunderground v.1.15,2013-02-07 14:00:00,
2013-02-07 09:02:00,39.8,36.0,30.28,ENE,62,2.0,4.0,86,0.00,,,0.00,Wunderground v.1.15,2013-02-07 14:02:00,
2013-02-07 09:03:00,39.8,36.0,30.28,ENE,68,1.0,4.0,86,0.00,,,0.00,Wunderground v.1.15,2013-02-07 14:03:00,
2013-02-07 09:05:00,39.8,36.0,30.28,NE,53,4.0,5.0,86,0.00,,,0.00,Wunderground v.1.15,2013-02-07 14:05:00,
2013-02-07 09:07:00,39.9,36.1,30.28,East,90,2.0,5.0,86,0.00,,,0.00,Wunderground v.1.15,2013-02-07 14:07:00,
2013-02-07 09:08:00,39.9,36.1,30.28,ENE,69,2.0,5.0,86,0.00,,,0.00,Wunderground v.1.15,2013-02-07 14:08:00,
2013-02-07 09:11:00,39.9,36.1,30.28,NE,51,2.0,3.0,86,0.00,,,0.00,Wunderground v.1.15,2013-02-07 14:11:00,
2013-02-07 09:12:00,39.9,36.1,30.28,NNE,31,2.0,4.0,86,0.00,,,0.00,Wunderground v.1.15,2013-02-07 14:12:00,
2013-02-07 09:13:00,40.0,36.2,30.28,NNE,24,3.0,5.0,86,0.00,,,0.00,Wunderground v.1.15,2013-02-07 14:13:00,
2013-02-07 09:16:00,39.9,35.8,30.28,ENE,65,1.0,6.0,85,0.00,,,0.00,Wunderground v.1.15,2013-02-07 14:16:00,
2013-02-07 09:17:00,39.9,36.1,30.28,NE,46,1.0,6.0,86,0.00,,,0.00,Wunderground v.1.15,2013-02-07 14:17:00,
2013-02-07 09:18:00,39.9,36.1,30.27,NE,37,2.0,6.0,86,0.00,,,0.00,Wunderground v.1.15,2013-02-07 14:18:00,
2013-02-07 09:21:00,39.9,36.1,30.27,North,1,2.0,3.0,86,0.00,,,0.00,Wunderground v.1.15,2013-02-07 14:21:00,
2013-02-07 09:22:00,40.0,35.9,30.27,NE,46,3.0,4.0,85,0.00,,,0.00,Wunderground v.1.15,2013-02-07 14:22:00,
2013-02-07 09:23:00,40.0,35.9,30.27,North,351,2.0,4.0,85,0.00,,,0.00,Wunderground v.1.15,2013-02-07 14:23:00,
2013-02-07 09:24:00,40.0,35.9,30.27,ENE,68,2.0,4.0,85,0.00,,,0.00,Wunderground v.1.15,2013-02-07 14:24:00,
2013-02-07 09:26:00,40.0,35.9,30.27,ENE,68,3.0,4.0,85,0.00,,,0.00,Wunderground v.1.15,2013-02-07 14:26:00,
2013-02-07 09:28:00,39.9,35.8,30.27,ENE,75,0.0,5.0,85,0.00,,,0.00,Wunderground v.1.15,2013-02-07 14:28:00,
2013-02-07 09:29:00,40.0,35.9,30.27,NNE,30,3.0,5.0,85,0.00,,,0.00,Wunderground v.1.15,2013-02-07 14:29:00,
2013-02-07 09:31:00,40.0,35.9,30.27,ENE,69,2.0,4.0,85,0.00,,,0.00,Wunderground v.1.15,2013-02-07 14:31:00,
2013-02-07 09:33:00,40.0,35.9,30.27,NE,39,2.0,4.0,85,0.00,,,0.00,Wunderground v.1.15,2013-02-07 14:33:00,
2013-02-07 09:34:00,40.1,36.0,30.27,NNE,33,2.0,4.0,85,0.00,,,0.00,Wunderground v.1.15,2013-02-07 14:34:00,
2013-02-07 09:36:00,40.1,36.0,30.27,ENE,60,2.0,4.0,85,0.00,,,0.00,Wunderground v.1.15,2013-02-07 14:36:00,
2013-02-07 09:38:00,40.1,36.0,30.27,ENE,75,0.0,4.0,85,0.00,,,0.00,Wunderground v.1.15,2013-02-07 14:38:00,
2013-02-07 09:39:00,40.1,36.0,30.27,ENE,75,1.0,4.0,85,0.00,,,0.00,Wunderground v.1.15,2013-02-07 14:39:00,
2013-02-07 09:41:00,40.2,36.1,30.27,NNW,340,2.0,3.0,85,0.00,,,0.00,Wunderground v.1.15,2013-02-07 14:41:00,
2013-02-07 09:43:00,40.2,36.1,30.27,North,11,3.0,4.0,85,0.00,,,0.00,Wunderground v.1.15,2013-02-07 14:43:00,
2013-02-07 09:44:00,40.2,35.8,30.27,East,86,3.0,4.0,84,0.00,,,0.00,Wunderground v.1.15,2013-02-07 14:44:00,
2013-02-07 09:47:00,40.3,36.1,30.27,NE,50,3.0,4.0,85,0.00,,,0.00,Wunderground v.1.15,2013-02-07 14:47:00,
2013-02-07 09:48:00,40.3,36.1,30.27,NNE,32,2.0,4.0,85,0.00,,,0.00,Wunderground v.1.15,2013-02-07 14:48:00,
2013-02-07 09:49:00,40.3,36.1,30.27,ENE,61,4.0,7.0,85,0.00,,,0.00,Wunderground v.1.15,2013-02-07 14:49:00,
2013-02-07 09:52:00,40.3,35.8,30.27,ENE,75,2.0,5.0,84,0.00,,,0.00,Wunderground v.1.15,2013-02-07 14:52:00,
2013-02-07 09:53:00,40.3,35.8,30.27,NNE,24,2.0,5.0,84,0.00,,,0.00,Wunderground v.1.15,2013-02-07 14:53:00,
2013-02-07 09:54:00,40.4,35.9,30.27,NE,49,1.0,5.0,84,0.00,,,0.00,Wunderground v.1.15,2013-02-07 14:54:00,
2013-02-07 09:57:00,40.4,35.9,30.27,ENE,60,2.0,5.0,84,0.00,,,0.00,Wunderground v.1.15,2013-02-07 14:57:00,
2013-02-07 09:58:00,40.6,36.4,30.27,NE,34,1.0,5.0,85,0.00,,,0.00,Wunderground v.1.15,2013-02-07 14:58:00,
2013-02-07 09:59:00,40.6,36.4,30.27,ENE,57,1.0,5.0,85,0.00,,,0.00,Wunderground v.1.15,2013-02-07 14:59:00,
2013-02-07 10:02:00,40.7,36.2,30.27,NE,41,2.0,6.0,84,0.00,,,0.00,Wunderground v.1.15,2013-02-07 15:02:00,
2013-02-07 10:03:00,40.7,36.2,30.27,ENE,69,2.0,7.0,84,0.00,,,0.00,Wunderground v.1.15,2013-02-07 15:03:00,
2013-02-07 10:04:00,40.7,36.2,30.27,NNW,342,1.0,7.0,84,0.00,,,0.00,Wunderground v.1.15,2013-02-07 15:04:00,
2013-02-07 10:05:00,40.7,36.2,30.27,ENE,59,4.0,7.0,84,0.00,,,0.00,Wunderground v.1.15,2013-02-07 15:05:00,
2013-02-07 10:07:00,40.7,35.9,30.27,ENE,70,3.0,7.0,83,0.00,,,0.00,Wunderground v.1.15,2013-02-07 15:07:00,
2013-02-07 10:08:00,40.7,36.2,30.27,NNE,20,3.0,7.0,84,0.00,,,0.00,Wunderground v.1.15,2013-02-07 15:08:00,
2013-02-07 10:09:00,40.7,36.2,30.27,ENE,72,5.0,7.0,84,0.00,,,0.00,Wunderground v.1.15,2013-02-07 15:09:00,
2013-02-07 10:10:00,40.7,36.2,30.27,NNE,32,4.0,5.0,84,0.00,,,0.00,Wunderground v.1.15,2013-02-07 15:10:00,
2013-02-07 10:12:00,40.8,36.0,30.26,NE,47,1.0,7.0,83,0.00,,,0.00,Wunderground v.1.15,2013-02-07 15:12:00,
2013-02-07 10:14:00,40.9,36.4,30.26,ENE,65,3.0,7.0,84,0.00,,,0.00,Wunderground v.1.15,2013-02-07 15:14:00,
2013-02-07 10:15:00,41.0,36.2,30.26,NW,311,3.0,7.0,83,0.00,,,0.00,Wunderground v.1.15,2013-02-07 15:15:00,
2013-02-07 10:17:00,41.1,36.3,30.26,NE,44,3.0,7.0,83,0.00,,,0.00,Wunderground v.1.15,2013-02-07 15:17:00,
2013-02-07 10:19:00,41.1,36.3,30.26,ENE,63,5.0,7.0,83,0.00,,,0.00,Wunderground v.1.15,2013-02-07 15:19:00,
2013-02-07 10:20:00,41.2,36.4,30.26,ENE,72,5.0,8.0,83,0.00,,,0.00,Wunderground v.1.15,2013-02-07 15:20:00,
2013-02-07 10:22:00,41.2,36.4,30.26,NNE,27,3.0,8.0,83,0.00,,,0.00,Wunderground v.1.15,2013-02-07 15:22:00,
2013-02-07 10:24:00,41.2,36.1,30.26,ENE,69,2.0,8.0,82,0.00,,,0.00,Wunderground v.1.15,2013-02-07 15:24:00,
2013-02-07 10:25:00,41.2,36.1,30.26,NE,50,3.0,8.0,82,0.00,,,0.00,Wunderground v.1.15,2013-02-07 15:25:00,
2013-02-07 10:28:00,41.2,36.1,30.26,NE,43,4.0,9.0,82,0.00,,,0.00,Wunderground v.1.15,2013-02-07 15:28:00,
2013-02-07 10:29:00,41.3,36.2,30.26,NNE,32,4.0,9.0,82,0.00,,,0.00,Wunderground v.1.15,2013-02-07 15:29:00,
2013-02-07 10:30:00,41.3,36.2,30.26,North,359,2.0,4.0,82,0.00,,,0.00,Wunderground v.1.15,2013-02-07 15:30:00,
2013-02-07 10:33:00,41.4,36.3,30.26,ENE,59,1.0,4.0,82,0.00,,,0.00,Wunderground v.1.15,2013-02-07 15:33:00,
2013-02-07 10:34:00,41.5,36.4,30.26,NNW,341,2.0,4.0,82,0.00,,,0.00,Wunderground v.1.15,2013-02-07 15:34:00,
2013-02-07 10:35:00,41.6,36.5,30.26,North,356,3.0,4.0,82,0.00,,,0.00,Wunderground v.1.15,2013-02-07 15:35:00,
2013-02-07 10:38:00,41.7,36.6,30.26,NNE,27,1.0,5.0,82,0.00,,,0.00,Wunderground v.1.15,2013-02-07 15:38:00,
2013-02-07 10:39:00,41.8,36.7,30.26,NNW,340,1.0,5.0,82,0.00,,,0.00,Wunderground v.1.15,2013-02-07 15:39:00,
2013-02-07 10:40:00,41.8,36.4,30.26,NE,56,3.0,5.0,81,0.00,,,0.00,Wunderground v.1.15,2013-02-07 15:40:00,
2013-02-07 10:43:00,41.8,36.4,30.26,NE,54,5.0,6.0,81,0.00,,,0.00,Wunderground v.1.15,2013-02-07 15:43:00,
2013-02-07 10:44:00,41.8,36.4,30.26,NE,51,3.0,6.0,81,0.00,,,0.00,Wunderground v.1.15,2013-02-07 15:44:00,
2013-02-07 10:45:00,41.8,36.4,30.26,ENE,65,3.0,6.0,81,0.00,,,0.00,Wunderground v.1.15,2013-02-07 15:45:00,
2013-02-07 10:48:00,41.9,36.5,30.26,NE,44,2.0,6.0,81,0.00,,,0.00,Wunderground v.1.15,2013-02-07 15:48:00,
2013-02-07 10:50:00,41.9,36.5,30.26,ENE,60,2.0,3.0,81,0.00,,,0.00,Wunderground v.1.15,2013-02-07 15:50:00,
2013-02-07 10:53:00,42.2,36.8,30.26,ENE,78,0.0,4.0,81,0.00,,,0.00,Wunderground v.1.15,2013-02-07 15:53:00,
2013-02-07 10:55:00,42.3,36.9,30.26,East,92,2.0,4.0,81,0.00,,,0.00,Wunderground v.1.15,2013-02-07 15:55:00,
2013-02-07 10:56:00,42.3,36.6,30.26,East,91,0.0,4.0,80,0.00,,,0.00,Wunderground v.1.15,2013-02-07 15:56:00,
2013-02-07 10:58:00,42.4,36.7,30.26,NE,42,3.0,4.0,80,0.00,,,0.00,Wunderground v.1.15,2013-02-07 15:58:00,
2013-02-07 11:00:00,42.5,36.8,30.26,ENE,78,3.0,3.0,80,0.00,,,0.00,Wunderground v.1.15,2013-02-07 16:00:00,
2013-02-07 11:01:00,42.6,36.9,30.26,NE,47,1.0,3.0,80,0.00,,,0.00,Wunderground v.1.15,2013-02-07 16:01:00,
2013-02-07 11:04:00,42.7,36.6,30.26,East,80,3.0,6.0,79,0.00,,,0.00,Wunderground v.1.15,2013-02-07 16:04:00,
2013-02-07 11:05:00,42.7,37.0,30.25,NE,46,5.0,6.0,80,0.00,,,0.00,Wunderground v.1.15,2013-02-07 16:05:00,
2013-02-07 11:06:00,42.8,37.1,30.25,ENE,60,2.0,6.0,80,0.00,,,0.00,Wunderground v.1.15,2013-02-07 16:06:00,
2013-02-07 11:09:00,42.9,36.8,30.25,ENE,63,6.0,6.0,79,0.00,,,0.00,Wunderground v.1.15,2013-02-07 16:09:00,
2013-02-07 11:10:00,42.9,36.8,30.25,ENE,70,2.0,3.0,79,0.00,,,0.00,Wunderground v.1.15,2013-02-07 16:10:00,
2013-02-07 11:11:00,42.9,36.8,30.25,East,93,2.0,3.0,79,0.00,,,0.00,Wunderground v.1.15,2013-02-07 16:11:00,
2013-02-07 11:14:00,43.1,37.0,30.25,North,353,2.0,6.0,79,0.00,,,0.00,Wunderground v.1.15,2013-02-07 16:14:00,
2013-02-07 11:15:00,43.1,37.0,30.25,NE,50,4.0,6.0,79,0.00,,,0.00,Wunderground v.1.15,2013-02-07 16:15:00,
2013-02-07 11:16:00,43.1,37.0,30.25,NNE,13,4.0,6.0,79,0.00,,,0.00,Wunderground v.1.15,2013-02-07 16:16:00,
2013-02-07 11:19:00,43.2,36.8,30.25,NNE,29,3.0,6.0,78,0.00,,,0.00,Wunderground v.1.15,2013-02-07 16:19:00,
2013-02-07 11:21:00,43.2,37.1,30.25,NNE,26,3.0,4.0,79,0.00,,,0.00,Wunderground v.1.15,2013-02-07 16:21:00,
2013-02-07 11:22:00,43.3,37.2,30.25,NNE,32,3.0,4.0,79,0.00,,,0.00,Wunderground v.1.15,2013-02-07 16:22:00,
2013-02-07 11:24:00,43.3,36.9,30.25,ENE,72,4.0,5.0,78,0.00,,,0.00,Wunderground v.1.15,2013-02-07 16:24:00,
2013-02-07 11:25:00,43.3,36.9,30.24,East,80,3.0,7.0,78,0.00,,,0.00,Wunderground v.1.15,2013-02-07 16:25:00,
2013-02-07 11:26:00,43.3,36.9,30.24,ENE,72,1.0,7.0,78,0.00,,,0.00,Wunderground v.1.15,2013-02-07 16:26:00,
2013-02-07 11:27:00,43.3,36.9,30.24,North,1,2.0,7.0,78,0.00,,,0.00,Wunderground v.1.15,2013-02-07 16:27:00,
2013-02-07 11:29:00,43.4,37.0,30.24,East,80,2.0,7.0,78,0.00,,,0.00,Wunderground v.1.15,2013-02-07 16:29:00,
2013-02-07 11:31:00,43.4,37.0,30.25,ENE,72,2.0,3.0,78,0.00,,,0.00,Wunderground v.1.15,2013-02-07 16:31:00,
2013-02-07 11:32:00,43.4,37.0,30.24,East,84,5.0,5.0,78,0.00,,,0.00,Wunderground v.1.15,2013-02-07 16:32:00,
2013-02-07 11:34:00,43.5,37.1,30.24,NE,41,3.0,5.0,78,0.00,,,0.00,Wunderground v.1.15,2013-02-07 16:34:00,
2013-02-07 11:36:00,43.5,37.1,30.24,NNE,32,3.0,5.0,78,0.00,,,0.00,Wunderground v.1.15,2013-02-07 16:36:00,
2013-02-07 11:37:00,43.6,37.2,30.24,NE,39,2.0,5.0,78,0.00,,,0.00,Wunderground v.1.15,2013-02-07 16:37:00,
2013-02-07 11:39:00,43.6,37.2,30.25,NNE,23,3.0,5.0,78,0.00,,,0.00,Wunderground v.1.15,2013-02-07 16:39:00,
2013-02-07 11:41:00,43.7,37.0,30.25,NE,36,4.0,4.0,77,0.00,,,0.00,Wunderground v.1.15,2013-02-07 16:41:00,
2013-02-07 11:42:00,43.6,36.9,30.24,NE,40,2.0,5.0,77,0.00,,,0.00,Wunderground v.1.15,2013-02-07 16:42:00,
2013-02-07 11:44:00,43.6,36.9,30.24,NNE,26,3.0,5.0,77,0.00,,,0.00,Wunderground v.1.15,2013-02-07 16:44:00,
2013-02-07 11:46:00,43.6,36.9,30.24,ENE,58,2.0,5.0,77,0.00,,,0.00,Wunderground v.1.15,2013-02-07 16:46:00,
2013-02-07 11:47:00,43.6,37.2,30.24,NNE,29,3.0,5.0,78,0.00,,,0.00,Wunderground v.1.15,2013-02-07 16:47:00,
2013-02-07 11:50:00,43.7,37.0,30.23,ENE,70,1.0,3.0,77,0.00,,,0.00,Wunderground v.1.15,2013-02-07 16:50:00,
2013-02-07 11:51:00,43.8,37.1,30.23,North,354,2.0,5.0,77,0.00,,,0.00,Wunderground v.1.15,2013-02-07 16:51:00,
2013-02-07 11:52:00,43.9,37.2,30.23,North,356,1.0,5.0,77,0.00,,,0.00,Wunderground v.1.15,2013-02-07 16:52:00,
2013-02-07 11:53:00,43.9,37.2,30.23,East,79,2.0,5.0,77,0.00,,,0.00,Wunderground v.1.15,2013-02-07 16:53:00,
2013-02-07 11:55:00,44.0,37.3,30.23,NE,46,3.0,5.0,77,0.00,,,0.00,Wunderground v.1.15,2013-02-07 16:55:00,
2013-02-07 11:57:00,44.0,37.3,30.23,NE,43,4.0,5.0,77,0.00,,,0.00,Wunderground v.1.15,2013-02-07 16:57:00,
2013-02-07 11:58:00,44.0,36.9,30.23,ESE,106,3.0,6.0,76,0.00,,,0.00,Wunderground v.1.15,2013-02-07 16:58:00,
2013-02-07 12:00:00,44.0,37.3,30.24,ENE,58,3.0,3.0,77,0.00,,,0.00,Wunderground v.1.15,2013-02-07 17:00:00,
2013-02-07 12:02:00,44.0,36.9,30.24,NNE,29,2.0,3.0,76,0.00,,,0.00,Wunderground v.1.15,2013-02-07 17:02:00,
2013-02-07 12:03:00,44.1,37.0,30.23,NNE,27,3.0,4.0,76,0.00,,,0.00,Wunderground v.1.15,2013-02-07 17:03:00,
2013-02-07 12:05:00,44.1,37.0,30.23,North,11,0.0,4.0,76,0.00,,,0.00,Wunderground v.1.15,2013-02-07 17:05:00,
2013-02-07 12:07:00,44.1,37.0,30.23,North,8,3.0,6.0,76,0.00,,,0.00,Wunderground v.1.15,2013-02-07 17:07:00,
2013-02-07 12:08:00,44.1,37.0,30.23,NNE,15,3.0,6.0,76,0.00,,,0.00,Wunderground v.1.15,2013-02-07 17:08:00,
2013-02-07 12:09:00,44.1,37.0,30.23,ENE,58,3.0,6.0,76,0.00,,,0.00,Wunderground v.1.15,2013-02-07 17:09:00,
2013-02-07 12:10:00,44.2,37.1,30.23,NE,52,2.0,3.0,76,0.00,,,0.00,Wunderground v.1.15,2013-02-07 17:10:00,
2013-02-07 12:12:00,44.2,37.1,30.23,NNW,332,4.0,4.0,76,0.00,,,0.00,Wunderground v.1.15,2013-02-07 17:12:00,
2013-02-07 12:13:00,44.3,37.2,30.23,NNE,29,2.0,4.0,76,0.00,,,0.00,Wunderground v.1.15,2013-02-07 17:13:00,
2013-02-07 12:14:00,44.3,37.2,30.22,ENE,61,2.0,4.0,76,0.00,,,0.00,Wunderground v.1.15,2013-02-07 17:14:00,
2013-02-07 12:15:00,44.3,37.2,30.22,North,8,2.0,4.0,76,0.00,,,0.00,Wunderground v.1.15,2013-02-07 17:15:00,
2013-02-07 12:17:00,44.4,37.3,30.22,NNE,25,3.0,5.0,76,0.00,,,0.00,Wunderground v.1.15,2013-02-07 17:17:00,
2013-02-07 12:18:00,44.4,37.3,30.22,ENE,57,2.0,5.0,76,0.00,,,0.00,Wunderground v.1.15,2013-02-07 17:18:00,
2013-02-07 12:19:00,44.5,37.1,30.22,ENE,57,1.0,5.0,75,0.00,,,0.00,Wunderground v.1.15,2013-02-07 17:19:00,
2013-02-07 12:20:00,44.5,37.1,30.22,North,350,0.0,2.0,75,0.00,,,0.00,Wunderground v.1.15,2013-02-07 17:20:00,
2013-02-07 12:22:00,44.5,37.4,30.22,SW,217,1.0,3.0,76,0.00,,,0.00,Wunderground v.1.15,2013-02-07 17:22:00,
2013-02-07 12:23:00,44.6,37.2,30.22,NNE,32,3.0,6.0,75,0.00,,,0.00,Wunderground v.1.15,2013-02-07 17:23:00,
2013-02-07 12:25:00,44.6,37.2,30.22,ENE,65,2.0,6.0,75,0.00,,,0.00,Wunderground v.1.15,2013-02-07 17:25:00,
2013-02-07 12:27:00,44.6,37.2,30.21,NNE,13,3.0,6.0,75,0.00,,,0.00,Wunderground v.1.15,2013-02-07 17:27:00,
2013-02-07 12:28:00,44.6,37.2,30.21,NNE,20,4.0,6.0,75,0.00,,,0.00,Wunderground v.1.15,2013-02-07 17:28:00,
2013-02-07 12:30:00,44.6,37.2,30.21,NNE,33,4.0,4.0,75,0.00,,,0.00,Wunderground v.1.15,2013-02-07 17:30:00,
2013-02-07 12:31:00,44.6,37.2,30.21,NE,42,6.0,7.0,75,0.00,,,0.00,Wunderground v.1.15,2013-02-07 17:31:00,
2013-02-07 12:32:00,44.6,37.2,30.21,NE,51,2.0,7.0,75,0.00,,,0.00,Wunderground v.1.15,2013-02-07 17:32:00,
2013-02-07 12:33:00,44.6,37.2,30.21,ENE,72,3.0,7.0,75,0.00,,,0.00,Wunderground v.1.15,2013-02-07 17:33:00,
2013-02-07 12:35:00,44.6,37.2,30.21,NNE,18,3.0,7.0,75,0.00,,,0.00,Wunderground v.1.15,2013-02-07 17:35:00,
2013-02-07 12:36:00,44.7,37.3,30.21,ENE,70,2.0,7.0,75,0.00,,,0.00,Wunderground v.1.15,2013-02-07 17:36:00,
2013-02-07 12:38:00,44.8,37.4,30.21,NNE,31,2.0,7.0,75,0.00,,,0.00,Wunderground v.1.15,2013-02-07 17:38:00,
2013-02-07 12:39:00,44.8,37.4,30.21,NNE,22,1.0,7.0,75,0.00,,,0.00,Wunderground v.1.15,2013-02-07 17:39:00,
2013-02-07 12:40:00,44.9,37.5,30.21,NNE,23,0.0,3.0,75,0.00,,,0.00,Wunderground v.1.15,2013-02-07 17:40:00,
2013-02-07 12:41:00,45.0,37.6,30.21,NW,321,1.0,3.0,75,0.00,,,0.00,Wunderground v.1.15,2013-02-07 17:41:00,
2013-02-07 12:43:00,45.3,37.8,30.20,NE,53,2.0,3.0,75,0.00,,,0.00,Wunderground v.1.15,2013-02-07 17:43:00,
2013-02-07 12:44:00,45.3,37.5,30.20,NE,41,4.0,4.0,74,0.00,,,0.00,Wunderground v.1.15,2013-02-07 17:44:00,
2013-02-07 12:45:00,45.4,37.6,30.21,East,96,3.0,4.0,74,0.00,,,0.00,Wunderground v.1.15,2013-02-07 17:45:00,
2013-02-07 12:46:00,45.4,37.6,30.20,NNW,336,4.0,5.0,74,0.00,,,0.00,Wunderground v.1.15,2013-02-07 17:46:00,
2013-02-07 12:48:00,45.4,37.2,30.20,NE,41,3.0,7.0,73,0.00,,,0.00,Wunderground v.1.15,2013-02-07 17:48:00,
2013-02-07 12:49:00,45.4,37.2,30.20,NNE,18,3.0,7.0,73,0.00,,,0.00,Wunderground v.1.15,2013-02-07 17:49:00,
2013-02-07 12:50:00,45.3,37.2,30.20,NNE,18,3.0,4.0,73,0.00,,,0.00,Wunderground v.1.15,2013-02-07 17:50:00,
2013-02-07 12:51:00,45.3,37.2,30.20,North,356,5.0,6.0,73,0.00,,,0.00,Wunderground v.1.15,2013-02-07 17:51:00,
2013-02-07 12:54:00,45.2,37.4,30.20,ENE,65,2.0,6.0,74,0.00,,,0.00,Wunderground v.1.15,2013-02-07 17:54:00,
2013-02-07 12:55:00,45.3,37.5,30.20,NNW,337,2.0,6.0,74,0.00,,,0.00,Wunderground v.1.15,2013-02-07 17:55:00,
2013-02-07 12:56:00,45.3,37.5,30.20,NNW,348,0.0,6.0,74,0.00,,,0.00,Wunderground v.1.15,2013-02-07 17:56:00,
2013-02-07 12:59:00,45.5,37.7,30.20,ENE,78,0.0,6.0,74,0.00,,,0.00,Wunderground v.1.15,2013-02-07 17:59:00,
2013-02-07 13:00:00,45.6,37.8,30.20,ENE,71,3.0,3.0,74,0.00,,,0.00,Wunderground v.1.15,2013-02-07 18:00:00,
2013-02-07 13:01:00,45.7,37.9,30.20,ESE,110,2.0,4.0,74,0.00,,,0.00,Wunderground v.1.15,2013-02-07 18:01:00,
2013-02-07 13:04:00,45.9,37.7,30.20,NE,56,3.0,4.0,73,0.00,,,0.00,Wunderground v.1.15,2013-02-07 18:04:00,
2013-02-07 13:05:00,45.9,37.7,30.20,NE,56,3.0,4.0,73,0.00,,,0.00,Wunderground v.1.15,2013-02-07 18:05:00,
2013-02-07 13:07:00,45.9,37.7,30.19,NE,50,3.0,4.0,73,0.00,,,0.00,Wunderground v.1.15,2013-02-07 18:07:00,
2013-02-07 13:09:00,45.9,37.7,30.19,ENE,70,3.0,4.0,73,0.00,,,0.00,Wunderground v.1.15,2013-02-07 18:09:00,
2013-02-07 13:10:00,45.9,37.7,30.19,NE,34,4.0,4.0,73,0.00,,,0.00,Wunderground v.1.15,2013-02-07 18:10:00,
2013-02-07 13:12:00,46.0,37.8,30.19,ENE,77,3.0,4.0,73,0.00,,,0.00,Wunderground v.1.15,2013-02-07 18:12:00,
2013-02-07 13:14:00,46.0,37.8,30.19,ENE,68,1.0,4.0,73,0.00,,,0.00,Wunderground v.1.15,2013-02-07 18:14:00,
2013-02-07 13:15:00,46.1,37.9,30.19,NE,40,3.0,4.0,73,0.00,,,0.00,Wunderground v.1.15,2013-02-07 18:15:00,
2013-02-07 13:17:00,46.2,38.0,30.19,ENE,59,2.0,4.0,73,0.00,,,0.00,Wunderground v.1.15,2013-02-07 18:17:00,
2013-02-07 13:19:00,46.2,37.7,30.19,ENE,61,6.0,6.0,72,0.00,,,0.00,Wunderground v.1.15,2013-02-07 18:19:00,
2013-02-07 13:20:00,46.2,37.7,30.19,East,95,2.0,3.0,72,0.00,,,0.00,Wunderground v.1.15,2013-02-07 18:20:00,
2013-02-07 13:22:00,46.3,37.8,30.19,NNE,29,6.0,7.0,72,0.00,,,0.00,Wunderground v.1.15,2013-02-07 18:22:00,
2013-02-07 13:24:00,46.3,37.8,30.18,NE,41,3.0,7.0,72,0.00,,,0.00,Wunderground v.1.15,2013-02-07 18:24:00,
2013-02-07 13:25:00,46.3,37.8,30.18,ENE,74,2.0,7.0,72,0.00,,,0.00,Wunderground v.1.15,2013-02-07 18:25:00,
2013-02-07 13:28:00,46.4,38.2,30.18,East,82,4.0,7.0,73,0.00,,,0.00,Wunderground v.1.15,2013-02-07 18:28:00,
2013-02-07 13:30:00,46.5,38.0,30.18,NE,37,1.0,7.0,72,0.00,,,0.00,Wunderground v.1.15,2013-02-07 18:30:00,
2013-02-07 13:33:00,46.6,38.1,30.18,NNE,30,4.0,5.0,72,0.00,,,0.00,Wunderground v.1.15,2013-02-07 18:33:00,
2013-02-07 13:35:00,46.7,38.1,30.18,ENE,61,3.0,5.0,72,0.00,,,0.00,Wunderground v.1.15,2013-02-07 18:35:00,
2013-02-07 13:38:00,46.8,38.2,30.18,ENE,61,0.0,5.0,72,0.00,,,0.00,Wunderground v.1.15,2013-02-07 18:38:00,
2013-02-07 13:40:00,46.9,38.3,30.18,ENE,77,1.0,2.0,72,0.00,,,0.00,Wunderground v.1.15,2013-02-07 18:40:00,
2013-02-07 13:43:00,47.0,38.1,30.18,ENE,75,2.0,5.0,71,0.00,,,0.00,Wunderground v.1.15,2013-02-07 18:43:00,
2013-02-07 13:45:00,47.0,38.4,30.18,ENE,75,2.0,5.0,72,0.00,,,0.00,Wunderground v.1.15,2013-02-07 18:45:00,
2013-02-07 13:49:00,47.0,38.1,30.18,NNW,347,2.0,5.0,71,0.00,,,0.00,Wunderground v.1.15,2013-02-07 18:49:00,
2013-02-07 13:50:00,47.0,38.1,30.18,NNE,13,1.0,2.0,71,0.00,,,0.00,Wunderground v.1.15,2013-02-07 18:50:00,
2013-02-07 13:51:00,47.1,38.2,30.18,ENE,68,2.0,2.0,71,0.00,,,0.00,Wunderground v.1.15,2013-02-07 18:51:00,
2013-02-07 13:54:00,47.0,38.1,30.18,ENE,70,5.0,6.0,71,0.00,,,0.00,Wunderground v.1.15,2013-02-07 18:54:00,
2013-02-07 13:55:00,47.0,38.1,30.18,ENE,65,4.0,6.0,71,0.00,,,0.00,Wunderground v.1.15,2013-02-07 18:55:00,
2013-02-07 13:56:00,47.0,38.4,30.18,NE,51,2.0,6.0,72,0.00,,,0.00,Wunderground v.1.15,2013-02-07 18:56:00,
2013-02-07 14:00:00,47.2,38.6,30.17,NNE,18,3.0,6.0,72,0.00,,,0.00,Wunderground v.1.15,2013-02-07 19:00:00,
2013-02-07 14:01:00,47.2,38.3,30.17,NE,50,1.0,2.0,71,0.00,,,0.00,Wunderground v.1.15,2013-02-07 19:01:00,
2013-02-07 14:05:00,47.3,38.4,30.17,NE,37,3.0,5.0,71,0.00,,,0.00,Wunderground v.1.15,2013-02-07 19:05:00,
2013-02-07 14:06:00,47.3,38.4,30.17,ENE,75,2.0,5.0,71,0.00,,,0.00,Wunderground v.1.15,2013-02-07 19:06:00,
2013-02-07 14:10:00,47.3,38.4,30.17,ENE,60,2.0,3.0,71,0.00,,,0.00,Wunderground v.1.15,2013-02-07 19:10:00,
2013-02-07 14:11:00,47.3,38.4,30.17,NE,46,3.0,5.0,71,0.00,,,0.00,Wunderground v.1.15,2013-02-07 19:11:00,
2013-02-07 14:15:00,47.5,38.6,30.17,NNE,29,3.0,5.0,71,0.00,,,0.00,Wunderground v.1.15,2013-02-07 19:15:00,
2013-02-07 14:16:00,47.5,38.6,30.16,NE,41,2.0,5.0,71,0.00,,,0.00,Wunderground v.1.15,2013-02-07 19:16:00,
2013-02-07 14:20:00,47.7,38.8,30.16,ENE,63,0.0,2.0,71,0.00,,,0.00,Wunderground v.1.15,2013-02-07 19:20:00,
2013-02-07 14:21:00,47.7,39.1,30.16,ENE,65,2.0,2.0,72,0.00,,,0.00,Wunderground v.1.15,2013-02-07 19:21:00,
2013-02-07 14:25:00,47.8,38.8,30.16,NE,55,3.0,4.0,71,0.00,,,0.00,Wunderground v.1.15,2013-02-07 19:25:00,
2013-02-07 14:26:00,47.8,38.8,30.16,NE,56,3.0,4.0,71,0.00,,,0.00,Wunderground v.1.15,2013-02-07 19:26:00,
2013-02-07 14:30:00,47.9,38.9,30.16,NNE,30,3.0,4.0,71,0.00,,,0.00,Wunderground v.1.15,2013-02-07 19:30:00,
2013-02-07 14:31:00,47.9,38.9,30.16,WNW,285,1.0,4.0,71,0.00,,,0.00,Wunderground v.1.15,2013-02-07 19:31:00,
2013-02-07 14:36:00,47.9,38.9,30.16,ENE,72,1.0,5.0,71,0.00,,,0.00,Wunderground v.1.15,2013-02-07 19:36:00,
2013-02-07 14:41:00,48.0,39.0,30.16,ENE,63,1.0,2.0,71,0.00,,,0.00,Wunderground v.1.15,2013-02-07 19:41:00,
2013-02-07 14:42:00,48.0,39.0,30.16,NE,46,1.0,2.0,71,0.00,,,0.00,Wunderground v.1.15,2013-02-07 19:42:00,
2013-02-07 14:46:00,48.0,39.0,30.17,ENE,65,2.0,5.0,71,0.00,,,0.00,Wunderground v.1.15,2013-02-07 19:46:00,
2013-02-07 14:47:00,48.0,39.0,30.17,ENE,71,1.0,5.0,71,0.00,,,0.00,Wunderground v.1.15,2013-02-07 19:47:00,
2013-02-07 14:51:00,48.1,39.1,30.16,NE,47,3.0,4.0,71,0.00,,,0.00,Wunderground v.1.15,2013-02-07 19:51:00,
2013-02-07 14:52:00,48.1,39.1,30.16,NE,54,2.0,4.0,71,0.00,,,0.00,Wunderground v.1.15,2013-02-07 19:52:00,
2013-02-07 14:56:00,48.0,39.0,30.16,NW,325,1.0,4.0,71,0.00,,,0.00,Wunderground v.1.15,2013-02-07 19:56:00,
2013-02-07 14:57:00,48.0,39.0,30.16,NE,50,3.0,7.0,71,0.00,,,0.00,Wunderground v.1.15,2013-02-07 19:57:00,
2013-02-07 15:01:00,48.0,39.0,30.16,NE,52,2.0,4.0,71,0.00,,,0.00,Wunderground v.1.15,2013-02-07 20:01:00,
2013-02-07 15:02:00,48.0,39.0,30.16,WNW,302,1.0,4.0,71,0.00,,,0.00,Wunderground v.1.15,2013-02-07 20:02:00,
2013-02-07 15:06:00,48.0,39.4,30.16,North,354,1.0,6.0,72,0.00,,,0.00,Wunderground v.1.15,2013-02-07 20:06:00,
2013-02-07 15:07:00,48.0,39.4,30.16,NNW,333,2.0,6.0,72,0.00,,,0.00,Wunderground v.1.15,2013-02-07 20:07:00,
2013-02-07 15:11:00,48.0,39.4,30.16,NE,42,2.0,3.0,72,0.00,,,0.00,Wunderground v.1.15,2013-02-07 20:11:00,
2013-02-07 15:12:00,48.0,39.4,30.16,NE,38,2.0,3.0,72,0.00,,,0.00,Wunderground v.1.15,2013-02-07 20:12:00,
2013-02-07 15:16:00,48.1,39.5,30.15,NNE,16,0.0,4.0,72,0.00,,,0.00,Wunderground v.1.15,2013-02-07 20:16:00,
2013-02-07 15:17:00,48.1,39.5,30.15,NNE,16,0.0,4.0,72,0.00,,,0.00,Wunderground v.1.15,2013-02-07 20:17:00,
2013-02-07 15:22:00,48.2,39.6,30.15,NNE,18,3.0,3.0,72,0.00,,,0.00,Wunderground v.1.15,2013-02-07 20:22:00,
2013-02-07 15:23:00,48.2,39.6,30.15,NNE,26,2.0,3.0,72,0.00,,,0.00,Wunderground v.1.15,2013-02-07 20:23:00,
2013-02-07 15:27:00,48.3,39.7,30.15,NE,52,1.0,3.0,72,0.00,,,0.00,Wunderground v.1.15,2013-02-07 20:27:00,
2013-02-07 15:46:00,48.2,39.6,30.15,NE,51,2.0,5.0,72,0.00,,,0.00,Wunderground v.1.15,2013-02-07 20:46:00,
2013-02-07 15:51:00,48.1,39.5,30.15,East,80,4.0,5.0,72,0.00,,,0.00,Wunderground v.1.15,2013-02-07 20:51:00,
2013-02-07 15:56:00,48.1,39.5,30.15,NE,40,1.0,5.0,72,0.00,,,0.00,Wunderground v.1.15,2013-02-07 20:56:00,
2013-02-07 16:01:00,48.1,39.5,30.15,NE,46,4.0,5.0,72,0.00,,,0.00,Wunderground v.1.15,2013-02-07 21:01:00,
2013-02-07 16:02:00,48.1,39.5,30.15,ENE,62,3.0,5.0,72,0.00,,,0.00,Wunderground v.1.15,2013-02-07 21:02:00,
2013-02-07 16:06:00,48.0,39.4,30.15,North,6,1.0,5.0,72,0.00,,,0.00,Wunderground v.1.15,2013-02-07 21:06:00,
2013-02-07 16:07:00,48.0,39.4,30.15,NE,46,3.0,5.0,72,0.00,,,0.00,Wunderground v.1.15,2013-02-07 21:07:00,
2013-02-07 16:11:00,48.0,39.8,30.14,NNE,30,4.0,4.0,73,0.00,,,0.00,Wunderground v.1.15,2013-02-07 21:11:00,
2013-02-07 16:12:00,48.0,39.8,30.14,North,352,2.0,4.0,73,0.00,,,0.00,Wunderground v.1.15,2013-02-07 21:12:00,
2013-02-07 16:16:00,48.0,39.8,30.14,ENE,59,3.0,5.0,73,0.00,,,0.00,Wunderground v.1.15,2013-02-07 21:16:00,
2013-02-07 16:17:00,48.0,39.8,30.14,NW,321,2.0,5.0,73,0.00,,,0.00,Wunderground v.1.15,2013-02-07 21:17:00,
2013-02-07 16:22:00,47.9,39.3,30.14,NE,41,4.0,7.0,72,0.00,,,0.00,Wunderground v.1.15,2013-02-07 21:22:00,
2013-02-07 16:27:00,47.8,39.6,30.14,North,359,5.0,7.0,73,0.00,,,0.00,Wunderground v.1.15,2013-02-07 21:27:00,
2013-02-07 16:32:00,47.8,39.6,30.13,NE,46,1.0,3.0,73,0.00,,,0.00,Wunderground v.1.15,2013-02-07 21:32:00,
2013-02-07 16:33:00,47.8,39.6,30.13,ENE,78,1.0,3.0,73,0.00,,,0.00,Wunderground v.1.15,2013-02-07 21:33:00,
2013-02-07 16:37:00,47.8,39.6,30.14,NNE,25,1.0,3.0,73,0.00,,,0.00,Wunderground v.1.15,2013-02-07 21:37:00,
2013-02-07 16:38:00,47.7,39.5,30.14,NNE,13,6.0,6.0,73,0.00,,,0.00,Wunderground v.1.15,2013-02-07 21:38:00,
2013-02-07 16:42:00,47.7,39.5,30.13,NW,307,2.0,5.0,73,0.00,,,0.00,Wunderground v.1.15,2013-02-07 21:42:00,
2013-02-07 16:43:00,47.7,39.5,30.13,NNE,33,0.0,5.0,73,0.00,,,0.00,Wunderground v.1.15,2013-02-07 21:43:00,
2013-02-07 16:47:00,47.7,39.5,30.13,NNE,31,4.0,8.0,73,0.00,,,0.00,Wunderground v.1.15,2013-02-07 21:47:00,
2013-02-07 16:48:00,47.6,39.4,30.13,North,6,4.0,8.0,73,0.00,,,0.00,Wunderground v.1.15,2013-02-07 21:48:00,
2013-02-07 16:52:00,47.7,39.5,30.13,ENE,58,2.0,3.0,73,0.00,,,0.00,Wunderground v.1.15,2013-02-07 21:52:00,
2013-02-07 16:53:00,47.6,39.4,30.13,North,349,2.0,3.0,73,0.00,,,0.00,Wunderground v.1.15,2013-02-07 21:53:00,
2013-02-07 16:57:00,47.6,39.4,30.12,NNE,33,1.0,3.0,73,0.00,,,0.00,Wunderground v.1.15,2013-02-07 21:57:00,
2013-02-07 16:58:00,47.6,39.4,30.13,NNE,13,3.0,5.0,73,0.00,,,0.00,Wunderground v.1.15,2013-02-07 21:58:00,
2013-02-07 16:59:00,47.6,39.4,30.13,NE,56,1.0,5.0,73,0.00,,,0.00,Wunderground v.1.15,2013-02-07 21:59:00,
2013-02-07 17:02:00,47.6,39.4,30.13,NNW,345,3.0,5.0,73,0.00,,,0.00,Wunderground v.1.15,2013-02-07 22:02:00,
2013-02-07 17:03:00,47.6,39.4,30.13,North,11,2.0,5.0,73,0.00,,,0.00,Wunderground v.1.15,2013-02-07 22:03:00,
2013-02-07 17:04:00,47.5,39.3,30.13,NE,43,2.0,5.0,73,0.00,,,0.00,Wunderground v.1.15,2013-02-07 22:04:00,
2013-02-07 17:07:00,47.5,39.3,30.12,North,7,3.0,5.0,73,0.00,,,0.00,Wunderground v.1.15,2013-02-07 22:07:00,
2013-02-07 17:08:00,47.5,39.3,30.12,East,94,1.0,5.0,73,0.00,,,0.00,Wunderground v.1.15,2013-02-07 22:08:00,
2013-02-07 17:09:00,47.5,39.3,30.13,NNE,18,4.0,5.0,73,0.00,,,0.00,Wunderground v.1.15,2013-02-07 22:09:00,
2013-02-07 17:13:00,47.4,39.5,30.12,NNE,24,3.0,4.0,74,0.00,,,0.00,Wunderground v.1.15,2013-02-07 22:13:00,
2013-02-07 17:14:00,47.4,39.2,30.12,WNW,285,1.0,5.0,73,0.00,,,0.00,Wunderground v.1.15,2013-02-07 22:14:00,
2013-02-07 17:18:00,47.3,39.4,30.13,NNE,21,3.0,5.0,74,0.00,,,0.00,Wunderground v.1.15,2013-02-07 22:18:00,
2013-02-07 17:19:00,47.3,39.4,30.13,East,82,3.0,5.0,74,0.00,,,0.00,Wunderground v.1.15,2013-02-07 22:19:00,
2013-02-07 17:23:00,47.2,39.3,30.13,NE,37,3.0,4.0,74,0.00,,,0.00,Wunderground v.1.15,2013-02-07 22:23:00,
2013-02-07 17:24:00,47.2,39.3,30.12,NNE,20,1.0,4.0,74,0.00,,,0.00,Wunderground v.1.15,2013-02-07 22:24:00,
2013-02-07 17:28:00,47.1,39.6,30.12,NE,46,2.0,5.0,75,0.00,,,0.00,Wunderground v.1.15,2013-02-07 22:28:00,
2013-02-07 17:29:00,47.1,39.6,30.12,NE,53,1.0,5.0,75,0.00,,,0.00,Wunderground v.1.15,2013-02-07 22:29:00,
2013-02-07 17:34:00,46.9,39.4,30.12,NE,41,1.0,8.0,75,0.00,,,0.00,Wunderground v.1.15,2013-02-07 22:34:00,
2013-02-07 17:39:00,46.8,40.0,30.12,NE,34,4.0,8.0,77,0.00,,,0.00,Wunderground v.1.15,2013-02-07 22:39:00,
2013-02-07 17:44:00,46.7,39.9,30.12,ENE,63,4.0,6.0,77,0.00,,,0.00,Wunderground v.1.15,2013-02-07 22:44:00,
2013-02-07 17:49:00,46.6,39.8,30.12,North,355,2.0,6.0,77,0.00,,,0.00,Wunderground v.1.15,2013-02-07 22:49:00,
2013-02-07 17:54:00,46.6,39.8,30.11,NNW,340,2.0,5.0,77,0.00,,,0.00,Wunderground v.1.15,2013-02-07 22:54:00,
2013-02-07 17:59:00,46.5,40.0,30.11,North,352,1.0,5.0,78,0.00,,,0.00,Wunderground v.1.15,2013-02-07 22:59:00,
2013-02-07 18:00:00,46.5,40.0,30.11,NE,39,2.0,5.0,78,0.00,,,0.00,Wunderground v.1.15,2013-02-07 23:00:00,
2013-02-07 18:04:00,46.5,40.0,30.11,NE,56,3.0,3.0,78,0.00,,,0.00,Wunderground v.1.15,2013-02-07 23:04:00,
2013-02-07 18:05:00,46.5,40.0,30.11,NE,52,2.0,3.0,78,0.00,,,0.00,Wunderground v.1.15,2013-02-07 23:05:00,
2013-02-07 18:09:00,46.4,39.9,30.11,ENE,70,2.0,6.0,78,0.00,,,0.00,Wunderground v.1.15,2013-02-07 23:09:00,
2013-02-07 18:10:00,46.4,39.9,30.11,ENE,59,2.0,2.0,78,0.00,,,0.00,Wunderground v.1.15,2013-02-07 23:10:00,
2013-02-07 18:14:00,46.3,40.1,30.10,NNE,29,1.0,4.0,79,0.00,,,0.00,Wunderground v.1.15,2013-02-07 23:14:00,
2013-02-07 18:15:00,46.3,40.1,30.10,North,8,4.0,4.0,79,0.00,,,0.00,Wunderground v.1.15,2013-02-07 23:15:00,
2013-02-07 18:19:00,46.3,40.1,30.10,East,89,3.0,5.0,79,0.00,,,0.00,Wunderground v.1.15,2013-02-07 23:19:00,
2013-02-07 18:20:00,46.3,40.1,30.10,ENE,71,2.0,2.0,79,0.00,,,0.00,Wunderground v.1.15,2013-02-07 23:20:00,
2013-02-07 18:24:00,46.2,40.4,30.10,NE,56,2.0,4.0,80,0.00,,,0.00,Wunderground v.1.15,2013-02-07 23:24:00,
2013-02-07 18:25:00,46.2,40.4,30.10,NNE,29,3.0,4.0,80,0.00,,,0.00,Wunderground v.1.15,2013-02-07 23:25:00,
2013-02-07 18:26:00,46.2,40.7,30.10,NNE,29,1.0,4.0,81,0.00,,,0.00,Wunderground v.1.15,2013-02-07 23:26:00,
2013-02-07 18:30:00,46.0,40.8,30.10,ENE,60,1.0,4.0,82,0.00,,,0.00,Wunderground v.1.15,2013-02-07 23:30:00,
2013-02-07 18:31:00,45.9,40.7,30.10,ENE,58,2.0,2.0,82,0.00,,,0.00,Wunderground v.1.15,2013-02-07 23:31:00,
2013-02-07 18:35:00,45.7,40.8,30.10,North,8,1.0,4.0,83,0.00,,,0.00,Wunderground v.1.15,2013-02-07 23:35:00,
2013-02-07 18:36:00,45.7,40.8,30.10,NE,43,1.0,4.0,83,0.00,,,0.00,Wunderground v.1.15,2013-02-07 23:36:00,
2013-02-07 18:40:00,45.5,40.9,30.10,ENE,59,1.0,2.0,84,0.00,,,0.00,Wunderground v.1.15,2013-02-07 23:40:00,
2013-02-07 18:41:00,45.5,40.9,30.09,ENE,63,2.0,2.0,84,0.00,,,0.00,Wunderground v.1.15,2013-02-07 23:41:00,
2013-02-07 18:45:00,45.3,41.1,30.09,North,349,1.0,4.0,85,0.00,,,0.00,Wunderground v.1.15,2013-02-07 23:45:00,
2013-02-07 18:46:00,45.3,41.1,30.09,NNE,27,3.0,4.0,85,0.00,,,0.00,Wunderground v.1.15,2013-02-07 23:46:00,
2013-02-07 18:50:00,45.2,41.3,30.09,ENE,68,1.0,2.0,86,0.00,,,0.01,Wunderground v.1.15,2013-02-07 23:50:00,
2013-02-07 18:51:00,45.1,41.2,30.09,NNE,32,2.0,2.0,86,0.00,,,0.01,Wunderground v.1.15,2013-02-07 23:51:00,
2013-02-07 18:55:00,45.1,41.5,30.09,ENE,57,2.0,6.0,87,0.00,,,0.01,Wunderground v.1.15,2013-02-07 23:55:00,
2013-02-07 18:56:00,45.0,41.4,30.09,NNW,337,2.0,6.0,87,0.00,,,0.01,Wunderground v.1.15,2013-02-07 23:56:00,
2013-02-07 18:57:00,45.0,41.4,30.09,North,6,1.0,6.0,87,0.00,,,0.01,Wunderground v.1.15,2013-02-07 23:57:00,
2013-02-07 19:00:00,44.9,41.6,30.09,NNE,33,0.0,2.0,88,0.00,,,0.01,Wunderground v.1.15,2013-02-08 00:00:00,
2013-02-07 19:01:00,44.9,41.6,30.09,NNE,33,1.0,2.0,88,0.00,,,0.01,Wunderground v.1.15,2013-02-08 00:01:00,
2013-02-07 19:02:00,44.9,41.6,30.09,NNE,32,2.0,2.0,88,0.04,,,0.01,Wunderground v.1.15,2013-02-08 00:02:00,
2013-02-07 19:05:00,44.7,41.7,30.09,ENE,74,0.0,4.0,89,0.04,,,0.02,Wunderground v.1.15,2013-02-08 00:05:00,
2013-02-07 19:06:00,44.7,41.7,30.08,ENE,74,0.0,4.0,89,0.04,,,0.02,Wunderground v.1.15,2013-02-08 00:06:00,
2013-02-07 19:07:00,44.7,41.7,30.08,ENE,74,0.0,4.0,89,0.04,,,0.02,Wunderground v.1.15,2013-02-08 00:07:00,
2013-02-07 19:11:00,44.6,41.6,30.08,NE,40,2.0,3.0,89,0.04,,,0.02,Wunderground v.1.15,2013-02-08 00:11:00,
2013-02-07 19:12:00,44.6,41.8,30.08,ENE,78,2.0,3.0,90,0.07,,,0.03,Wunderground v.1.15,2013-02-08 00:12:00,
2013-02-07 19:16:00,44.5,41.7,30.08,ENE,60,1.0,4.0,90,0.07,,,0.03,Wunderground v.1.15,2013-02-08 00:16:00,
2013-02-07 19:17:00,44.4,41.7,30.08,ENE,70,3.0,4.0,90,0.07,,,0.03,Wunderground v.1.15,2013-02-08 00:17:00,
2013-02-07 19:21:00,44.4,41.9,30.08,NE,53,2.0,5.0,91,0.06,,,0.03,Wunderground v.1.15,2013-02-08 00:21:00,
2013-02-07 19:22:00,44.4,41.9,30.07,NNE,29,3.0,5.0,91,0.05,,,0.03,Wunderground v.1.15,2013-02-08 00:22:00,
2013-02-07 19:23:00,44.4,41.9,30.07,NE,43,3.0,5.0,91,0.05,,,0.03,Wunderground v.1.15,2013-02-08 00:23:00,
2013-02-07 19:26:00,44.3,41.8,30.07,NNE,13,4.0,5.0,91,0.04,,,0.03,Wunderground v.1.15,2013-02-08 00:26:00,
2013-02-07 19:27:00,44.3,41.8,30.07,East,79,5.0,5.0,91,0.04,,,0.03,Wunderground v.1.15,2013-02-08 00:27:00,
2013-02-07 19:28:00,44.3,41.8,30.07,ENE,68,3.0,5.0,91,0.04,,,0.04,Wunderground v.1.15,2013-02-08 00:28:00,
2013-02-07 19:32:00,44.3,42.1,30.07,NE,56,3.0,5.0,92,0.04,,,0.04,Wunderground v.1.15,2013-02-08 00:32:00,
2013-02-07 19:33:00,44.3,42.1,30.07,NNE,33,3.0,5.0,92,0.04,,,0.04,Wunderground v.1.15,2013-02-08 00:33:00,
2013-02-07 19:37:00,44.2,42.0,30.07,NE,39,4.0,5.0,92,0.04,,,0.04,Wunderground v.1.15,2013-02-08 00:37:00,
2013-02-07 19:38:00,44.2,42.0,30.07,NE,53,2.0,5.0,92,0.04,,,0.04,Wunderground v.1.15,2013-02-08 00:38:00,
2013-02-07 19:42:00,44.2,42.0,30.07,ENE,68,3.0,6.0,92,0.04,,,0.04,Wunderground v.1.15,2013-02-08 00:42:00,
2013-02-07 19:43:00,44.2,42.0,30.06,East,83,3.0,6.0,92,0.04,,,0.04,Wunderground v.1.15,2013-02-08 00:43:00,
2013-02-07 19:44:00,44.2,42.0,30.06,NE,46,4.0,6.0,92,0.04,,,0.04,Wunderground v.1.15,2013-02-08 00:44:00,
2013-02-07 19:47:00,44.2,42.3,30.06,ENE,69,4.0,6.0,93,0.00,,,0.05,Wunderground v.1.15,2013-02-08 00:47:00,
2013-02-07 19:48:00,44.2,42.3,30.06,NE,53,2.0,6.0,93,0.00,,,0.05,Wunderground v.1.15,2013-02-08 00:48:00,
2013-02-07 19:49:00,44.2,42.3,30.06,NE,34,2.0,6.0,93,0.00,,,0.05,Wunderground v.1.15,2013-02-08 00:49:00,
2013-02-07 19:52:00,44.2,42.3,30.06,ENE,61,2.0,4.0,93,0.00,,,0.05,Wunderground v.1.15,2013-02-08 00:52:00,
2013-02-07 19:53:00,44.2,42.3,30.06,ENE,65,3.0,8.0,93,0.00,,,0.05,Wunderground v.1.15,2013-02-08 00:53:00,
2013-02-07 19:54:00,44.2,42.3,30.06,ENE,61,6.0,8.0,93,0.00,,,0.05,Wunderground v.1.15,2013-02-08 00:54:00,
2013-02-07 19:57:00,44.2,42.3,30.06,ENE,65,4.0,8.0,93,0.00,,,0.05,Wunderground v.1.15,2013-02-08 00:57:00,
2013-02-07 19:58:00,44.2,42.3,30.06,ENE,65,2.0,8.0,93,0.00,,,0.05,Wunderground v.1.15,2013-02-08 00:58:00,
2013-02-07 19:59:00,44.2,42.3,30.06,NE,49,3.0,8.0,93,0.00,,,0.05,Wunderground v.1.15,2013-02-08 00:59:00,
2013-02-07 20:02:00,44.2,42.3,30.06,NE,37,4.0,8.0,93,0.00,,,0.05,Wunderground v.1.15,2013-02-08 01:02:00,
2013-02-07 20:03:00,44.2,42.3,30.06,ENE,65,4.0,8.0,93,0.04,,,0.06,Wunderground v.1.15,2013-02-08 01:03:00,
2013-02-07 20:04:00,44.2,42.3,30.06,NNE,20,2.0,8.0,93,0.04,,,0.06,Wunderground v.1.15,2013-02-08 01:04:00,
2013-02-07 20:07:00,44.2,42.3,30.06,NNE,29,2.0,8.0,93,0.04,,,0.06,Wunderground v.1.15,2013-02-08 01:07:00,
2013-02-07 20:08:00,44.2,42.3,30.05,NE,56,2.0,8.0,93,0.04,,,0.06,Wunderground v.1.15,2013-02-08 01:08:00,
2013-02-07 20:10:00,44.2,42.3,30.05,East,98,3.0,4.0,93,0.04,,,0.06,Wunderground v.1.15,2013-02-08 01:10:00,
2013-02-07 20:12:00,44.2,42.3,30.05,ENE,70,4.0,5.0,93,0.04,,,0.06,Wunderground v.1.15,2013-02-08 01:12:00,
2013-02-07 20:13:00,44.2,42.3,30.05,ENE,65,3.0,5.0,93,0.04,,,0.06,Wunderground v.1.15,2013-02-08 01:13:00,
2013-02-07 20:15:00,44.2,42.3,30.05,ENE,61,2.0,5.0,93,0.04,,,0.06,Wunderground v.1.15,2013-02-08 01:15:00,
2013-02-07 20:17:00,44.2,42.3,30.05,NNE,29,1.0,5.0,93,0.04,,,0.06,Wunderground v.1.15,2013-02-08 01:17:00,
2013-02-07 20:18:00,44.2,42.3,30.05,ENE,65,3.0,5.0,93,0.04,,,0.06,Wunderground v.1.15,2013-02-08 01:18:00,
2013-02-07 20:19:00,44.2,42.3,30.05,NE,52,6.0,8.0,93,0.00,,,0.06,Wunderground v.1.15,2013-02-08 01:19:00,
2013-02-07 20:20:00,44.2,42.3,30.05,ENE,63,3.0,3.0,93,0.00,,,0.07,Wunderground v.1.15,2013-02-08 01:20:00,
2013-02-07 20:22:00,44.2,42.3,30.05,East,80,2.0,4.0,93,0.00,,,0.07,Wunderground v.1.15,2013-02-08 01:22:00,
2013-02-07 20:24:00,44.2,42.3,30.05,NE,42,4.0,5.0,93,0.00,,,0.07,Wunderground v.1.15,2013-02-08 01:24:00,
2013-02-07 20:26:00,44.2,42.3,30.05,East,89,2.0,6.0,93,0.00,,,0.07,Wunderground v.1.15,2013-02-08 01:26:00,
2013-02-07 20:27:00,44.2,42.3,30.05,ENE,65,6.0,6.0,93,0.00,,,0.07,Wunderground v.1.15,2013-02-08 01:27:00,
2013-02-07 20:29:00,44.2,42.3,30.05,NNE,32,3.0,7.0,93,0.00,,,0.07,Wunderground v.1.15,2013-02-08 01:29:00,
2013-02-07 20:31:00,44.2,42.3,30.05,ENE,65,3.0,4.0,93,0.00,,,0.07,Wunderground v.1.15,2013-02-08 01:31:00,
2013-02-07 20:32:00,44.2,42.3,30.05,NE,50,3.0,6.0,93,0.05,,,0.08,Wunderground v.1.15,2013-02-08 01:32:00,
2013-02-07 20:34:00,44.1,42.2,30.04,NNE,25,5.0,8.0,93,0.05,,,0.08,Wunderground v.1.15,2013-02-08 01:34:00,
2013-02-07 20:36:00,44.1,42.2,30.04,North,349,4.0,9.0,93,0.05,,,0.08,Wunderground v.1.15,2013-02-08 01:36:00,
2013-02-07 20:37:00,44.2,42.3,30.04,NE,53,2.0,9.0,93,0.05,,,0.08,Wunderground v.1.15,2013-02-08 01:37:00,
2013-02-07 20:39:00,44.1,42.2,30.04,ENE,61,3.0,9.0,93,0.05,,,0.08,Wunderground v.1.15,2013-02-08 01:39:00,
2013-02-07 20:41:00,44.1,42.2,30.03,ENE,65,1.0,4.0,93,0.05,,,0.08,Wunderground v.1.15,2013-02-08 01:41:00,
2013-02-07 20:42:00,44.1,42.2,30.03,NNE,29,3.0,4.0,93,0.05,,,0.08,Wunderground v.1.15,2013-02-08 01:42:00,
2013-02-07 20:44:00,44.1,42.2,30.04,ESE,109,1.0,4.0,93,0.05,,,0.08,Wunderground v.1.15,2013-02-08 01:44:00,
2013-02-07 20:45:00,44.0,42.1,30.04,NE,41,1.0,6.0,93,0.05,,,0.08,Wunderground v.1.15,2013-02-08 01:45:00,
2013-02-07 20:46:00,44.0,42.1,30.04,ENE,57,1.0,6.0,93,0.04,,,0.08,Wunderground v.1.15,2013-02-08 01:46:00,
2013-02-07 20:47:00,44.0,42.1,30.04,NE,35,3.0,6.0,93,0.04,,,0.08,Wunderground v.1.15,2013-02-08 01:47:00,
2013-02-07 20:49:00,44.0,42.1,30.03,NE,51,2.0,6.0,93,0.00,,,0.08,Wunderground v.1.15,2013-02-08 01:49:00,
2013-02-07 20:50:00,44.0,42.1,30.03,ENE,70,2.0,3.0,93,0.00,,,0.08,Wunderground v.1.15,2013-02-08 01:50:00,
2013-02-07 20:51:00,43.9,42.0,30.03,East,88,1.0,3.0,93,0.00,,,0.08,Wunderground v.1.15,2013-02-08 01:51:00,
2013-02-07 20:52:00,43.9,42.0,30.03,ENE,75,3.0,3.0,93,0.00,,,0.08,Wunderground v.1.15,2013-02-08 01:52:00,
2013-02-07 20:54:00,43.9,42.0,30.04,ENE,59,4.0,7.0,93,0.00,,,0.08,Wunderground v.1.15,2013-02-08 01:54:00,
2013-02-07 20:55:00,43.9,42.0,30.04,ENE,72,3.0,7.0,93,0.00,,,0.08,Wunderground v.1.15,2013-02-08 01:55:00,
2013-02-07 20:57:00,43.9,42.0,30.04,ENE,62,3.0,7.0,93,0.00,,,0.08,Wunderground v.1.15,2013-02-08 01:57:00,
2013-02-07 21:00:00,43.9,42.0,30.04,East,98,5.0,8.0,93,0.00,,,0.09,Wunderground v.1.15,2013-02-08 02:00:00,
2013-02-07 21:02:00,43.9,42.0,30.04,NE,51,3.0,8.0,93,0.00,,,0.09,Wunderground v.1.15,2013-02-08 02:02:00,
2013-02-07 21:05:00,43.9,42.0,30.04,ENE,65,1.0,8.0,93,0.00,,,0.09,Wunderground v.1.15,2013-02-08 02:05:00,
2013-02-07 21:07:00,43.9,42.0,30.04,NE,53,5.0,8.0,93,0.00,,,0.09,Wunderground v.1.15,2013-02-08 02:07:00,
2013-02-07 21:10:00,43.8,41.9,30.03,NNE,25,3.0,3.0,93,0.00,,,0.09,Wunderground v.1.15,2013-02-08 02:10:00,
2013-02-07 21:11:00,43.8,41.9,30.03,NE,46,2.0,3.0,93,0.00,,,0.09,Wunderground v.1.15,2013-02-08 02:11:00,
2013-02-07 21:12:00,43.8,41.9,30.04,NE,43,2.0,4.0,93,0.00,,,0.09,Wunderground v.1.15,2013-02-08 02:12:00,
2013-02-07 21:13:00,43.8,41.9,30.03,NE,50,3.0,5.0,93,0.00,,,0.09,Wunderground v.1.15,2013-02-08 02:13:00,
2013-02-07 21:15:00,43.8,41.9,30.03,ENE,65,3.0,8.0,93,0.00,,,0.09,Wunderground v.1.15,2013-02-08 02:15:00,
2013-02-07 21:16:00,43.8,41.9,30.04,East,80,6.0,8.0,93,0.00,,,0.09,Wunderground v.1.15,2013-02-08 02:16:00,
2013-02-07 21:17:00,43.8,41.9,30.04,NE,51,3.0,8.0,93,0.00,,,0.10,Wunderground v.1.15,2013-02-08 02:17:00,
2013-02-07 21:18:00,43.8,41.9,30.04,NE,56,2.0,8.0,93,0.00,,,0.10,Wunderground v.1.15,2013-02-08 02:18:00,
2013-02-07 21:20:00,43.8,41.9,30.04,East,80,2.0,4.0,93,0.00,,,0.10,Wunderground v.1.15,2013-02-08 02:20:00,
2013-02-07 21:21:00,43.8,41.9,30.04,ENE,59,4.0,6.0,93,0.00,,,0.10,Wunderground v.1.15,2013-02-08 02:21:00,
2013-02-07 21:22:00,43.7,41.8,30.04,NE,41,2.0,6.0,93,0.00,,,0.10,Wunderground v.1.15,2013-02-08 02:22:00,
2013-02-07 21:23:00,43.7,41.8,30.04,NE,41,1.0,6.0,93,0.00,,,0.10,Wunderground v.1.15,2013-02-08 02:23:00,
2013-02-07 21:26:00,43.7,42.1,30.03,NE,42,2.0,6.0,94,0.07,,,0.11,Wunderground v.1.15,2013-02-08 02:26:00,
2013-02-07 21:27:00,43.7,42.1,30.03,ENE,78,2.0,6.0,94,0.07,,,0.11,Wunderground v.1.15,2013-02-08 02:27:00,
2013-02-07 21:28:00,43.7,42.1,30.03,ENE,77,1.0,6.0,94,0.07,,,0.11,Wunderground v.1.15,2013-02-08 02:28:00,
2013-02-07 21:31:00,43.7,42.1,30.03,NE,49,2.0,3.0,94,0.10,,,0.11,Wunderground v.1.15,2013-02-08 02:31:00,
2013-02-07 21:32:00,43.7,42.1,30.03,ENE,77,1.0,3.0,94,0.10,,,0.12,Wunderground v.1.15,2013-02-08 02:32:00,
2013-02-07 21:33:00,43.6,42.0,30.03,ENE,68,3.0,4.0,94,0.10,,,0.12,Wunderground v.1.15,2013-02-08 02:33:00,
2013-02-07 21:36:00,43.6,42.0,30.03,NE,35,1.0,6.0,94,0.10,,,0.12,Wunderground v.1.15,2013-02-08 02:36:00,
2013-02-07 21:37:00,43.6,42.0,30.03,ENE,76,2.0,6.0,94,0.10,,,0.12,Wunderground v.1.15,2013-02-08 02:37:00,
2013-02-07 21:38:00,43.6,42.0,30.03,NE,53,2.0,6.0,94,0.11,,,0.13,Wunderground v.1.15,2013-02-08 02:38:00,
2013-02-07 21:42:00,43.6,42.0,30.03,North,355,4.0,5.0,94,0.11,,,0.13,Wunderground v.1.15,2013-02-08 02:42:00,
2013-02-07 21:43:00,43.6,42.0,30.02,NE,34,3.0,5.0,94,0.10,,,0.13,Wunderground v.1.15,2013-02-08 02:43:00,
2013-02-07 21:47:00,43.5,41.9,30.02,ENE,70,1.0,5.0,94,0.09,,,0.14,Wunderground v.1.15,2013-02-08 02:47:00,
2013-02-07 21:48:00,43.5,41.9,30.02,NE,53,2.0,5.0,94,0.09,,,0.14,Wunderground v.1.15,2013-02-08 02:48:00,
2013-02-07 21:52:00,43.5,41.9,30.02,ENE,67,1.0,3.0,94,0.07,,,0.15,Wunderground v.1.15,2013-02-08 02:52:00,
2013-02-07 21:53:00,43.5,41.9,30.02,ENE,74,3.0,4.0,94,0.07,,,0.15,Wunderground v.1.15,2013-02-08 02:53:00,
2013-02-07 21:57:00,43.5,41.9,30.02,ENE,57,2.0,4.0,94,0.07,,,0.15,Wunderground v.1.15,2013-02-08 02:57:00,
2013-02-07 21:58:00,43.5,41.9,30.02,ENE,62,2.0,4.0,94,0.07,,,0.15,Wunderground v.1.15,2013-02-08 02:58:00,
2013-02-07 21:59:00,43.4,41.8,30.02,ENE,61,3.0,4.0,94,0.07,,,0.15,Wunderground v.1.15,2013-02-08 02:59:00,
2013-02-07 22:02:00,43.4,42.1,30.02,NE,44,1.0,3.0,95,0.06,,,0.16,Wunderground v.1.15,2013-02-08 03:02:00,
2013-02-07 22:03:00,43.4,42.1,30.02,East,86,2.0,3.0,95,0.06,,,0.16,Wunderground v.1.15,2013-02-08 03:03:00,
2013-02-07 22:04:00,43.5,42.2,30.02,ENE,72,3.0,4.0,95,0.06,,,0.16,Wunderground v.1.15,2013-02-08 03:04:00,
2013-02-07 22:08:00,43.4,42.1,30.01,ENE,71,4.0,4.0,95,0.09,,,0.17,Wunderground v.1.15,2013-02-08 03:08:00,
2013-02-07 22:09:00,43.4,42.1,30.01,ENE,61,1.0,4.0,95,0.09,,,0.17,Wunderground v.1.15,2013-02-08 03:09:00,
2013-02-07 22:13:00,43.4,42.1,30.01,NNE,13,2.0,4.0,95,0.12,,,0.18,Wunderground v.1.15,2013-02-08 03:13:00,
2013-02-07 22:14:00,43.4,42.1,30.01,ENE,65,6.0,6.0,95,0.12,,,0.18,Wunderground v.1.15,2013-02-08 03:14:00,
2013-02-07 22:18:00,43.4,42.1,30.00,NE,47,3.0,8.0,95,0.10,,,0.18,Wunderground v.1.15,2013-02-08 03:18:00,
2013-02-07 22:19:00,43.4,42.1,30.00,NE,53,2.0,8.0,95,0.09,,,0.18,Wunderground v.1.15,2013-02-08 03:19:00,
2013-02-07 22:20:00,43.4,42.1,30.00,ESE,106,3.0,3.0,95,0.08,,,0.18,Wunderground v.1.15,2013-02-08 03:20:00,
2013-02-07 22:23:00,43.3,42.0,30.00,ENE,71,5.0,6.0,95,0.07,,,0.19,Wunderground v.1.15,2013-02-08 03:23:00,
2013-02-07 22:24:00,43.3,42.0,30.00,NW,316,2.0,6.0,95,0.07,,,0.19,Wunderground v.1.15,2013-02-08 03:24:00,
2013-02-07 22:25:00,43.4,42.1,30.00,East,87,4.0,6.0,95,0.07,,,0.19,Wunderground v.1.15,2013-02-08 03:25:00,
2013-02-07 22:28:00,43.4,42.1,30.00,East,94,3.0,7.0,95,0.07,,,0.19,Wunderground v.1.15,2013-02-08 03:28:00,
2013-02-07 22:29:00,43.3,42.0,30.00,NE,50,3.0,7.0,95,0.07,,,0.19,Wunderground v.1.15,2013-02-08 03:29:00,
2013-02-07 22:30:00,43.4,42.1,30.00,East,80,3.0,3.0,95,0.07,,,0.19,Wunderground v.1.15,2013-02-08 03:30:00,
2013-02-07 22:33:00,43.4,42.1,29.99,NE,46,2.0,5.0,95,0.05,,,0.19,Wunderground v.1.15,2013-02-08 03:33:00,
2013-02-07 22:35:00,43.3,42.0,29.99,NW,324,1.0,6.0,95,0.05,,,0.20,Wunderground v.1.15,2013-02-08 03:35:00,
2013-02-07 22:38:00,43.3,42.0,29.99,NNE,23,1.0,6.0,95,0.05,,,0.20,Wunderground v.1.15,2013-02-08 03:38:00,
2013-02-07 22:40:00,43.3,42.0,29.99,ENE,75,4.0,6.0,95,0.05,,,0.20,Wunderground v.1.15,2013-02-08 03:40:00,
2013-02-07 22:44:00,43.3,42.0,29.99,NE,41,4.0,6.0,95,0.09,,,0.21,Wunderground v.1.15,2013-02-08 03:44:00,
2013-02-07 22:45:00,43.3,42.0,29.99,NE,40,1.0,6.0,95,0.09,,,0.21,Wunderground v.1.15,2013-02-08 03:45:00,
2013-02-07 22:49:00,43.3,42.0,29.99,ENE,75,1.0,6.0,95,0.07,,,0.21,Wunderground v.1.15,2013-02-08 03:49:00,
2013-02-07 22:50:00,43.3,42.0,29.99,ENE,62,2.0,6.0,95,0.06,,,0.21,Wunderground v.1.15,2013-02-08 03:50:00,
2013-02-07 22:54:00,43.3,42.0,29.98,NE,54,3.0,6.0,95,0.05,,,0.22,Wunderground v.1.15,2013-02-08 03:54:00,
2013-02-07 22:55:00,43.3,42.0,29.98,SE,127,5.0,6.0,95,0.05,,,0.22,Wunderground v.1.15,2013-02-08 03:55:00,
2013-02-07 22:56:00,43.3,42.0,29.98,ENE,74,3.0,6.0,95,0.05,,,0.22,Wunderground v.1.15,2013-02-08 03:56:00,
2013-02-07 22:59:00,43.3,42.0,29.98,ENE,68,2.0,6.0,95,0.11,,,0.23,Wunderground v.1.15,2013-02-08 03:59:00,
2013-02-07 23:01:00,43.3,42.0,29.97,NNE,32,3.0,5.0,95,0.11,,,0.23,Wunderground v.1.15,2013-02-08 04:01:00,
2013-02-07 23:04:00,43.2,41.9,29.97,NNE,23,4.0,5.0,95,0.14,,,0.24,Wunderground v.1.15,2013-02-08 04:04:00,
2013-02-07 23:06:00,43.2,41.9,29.97,NE,50,4.0,5.0,95,0.14,,,0.24,Wunderground v.1.15,2013-02-08 04:06:00,
2013-02-07 23:09:00,43.2,41.9,29.97,NE,37,3.0,5.0,95,0.10,,,0.25,Wunderground v.1.15,2013-02-08 04:09:00,
2013-02-07 23:11:00,43.2,41.9,29.97,ENE,61,1.0,3.0,95,0.10,,,0.25,Wunderground v.1.15,2013-02-08 04:11:00,
2013-02-07 23:14:00,43.2,41.9,29.96,SSE,153,4.0,5.0,95,0.11,,,0.26,Wunderground v.1.15,2013-02-08 04:14:00,
2013-02-07 23:16:00,43.2,41.9,29.96,NE,49,1.0,5.0,95,0.11,,,0.26,Wunderground v.1.15,2013-02-08 04:16:00,
2013-02-07 23:19:00,43.2,41.9,29.96,NE,44,3.0,6.0,95,0.11,,,0.26,Wunderground v.1.15,2013-02-08 04:19:00,
2013-02-07 23:21:00,43.2,41.9,29.96,NE,46,3.0,5.0,95,0.11,,,0.27,Wunderground v.1.15,2013-02-08 04:21:00,
2013-02-07 23:25:00,43.2,41.9,29.96,ENE,67,2.0,5.0,95,0.11,,,0.27,Wunderground v.1.15,2013-02-08 04:25:00,
2013-02-07 23:26:00,43.2,41.9,29.96,North,5,2.0,5.0,95,0.10,,,0.28,Wunderground v.1.15,2013-02-08 04:26:00,
2013-02-07 23:30:00,43.2,41.9,29.96,North,7,1.0,7.0,95,0.10,,,0.28,Wunderground v.1.15,2013-02-08 04:30:00,
2013-02-07 23:31:00,43.2,41.9,29.95,ENE,72,2.0,3.0,95,0.10,,,0.28,Wunderground v.1.15,2013-02-08 04:31:00,
2013-02-07 23:35:00,43.3,42.0,29.95,North,5,3.0,4.0,95,0.10,,,0.29,Wunderground v.1.15,2013-02-08 04:35:00,
2013-02-07 23:36:00,43.3,42.0,29.95,NNE,24,3.0,4.0,95,0.10,,,0.29,Wunderground v.1.15,2013-02-08 04:36:00,
2013-02-07 23:40:00,43.3,42.0,29.95,NNE,29,3.0,3.0,95,0.13,,,0.30,Wunderground v.1.15,2013-02-08 04:40:00,
2013-02-07 23:41:00,43.3,42.0,29.95,North,1,6.0,6.0,95,0.13,,,0.31,Wunderground v.1.15,2013-02-08 04:41:00,
2013-02-07 23:45:00,43.3,42.0,29.94,ENE,57,4.0,7.0,95,0.13,,,0.31,Wunderground v.1.15,2013-02-08 04:45:00,
2013-02-07 23:46:00,43.4,42.1,29.94,North,6,3.0,7.0,95,0.11,,,0.31,Wunderground v.1.15,2013-02-08 04:46:00,
2013-02-07 23:47:00,43.3,42.0,29.94,NNE,16,2.0,7.0,95,0.11,,,0.32,Wunderground v.1.15,2013-02-08 04:47:00,
2013-02-07 23:50:00,43.4,42.1,29.94,NNW,341,3.0,3.0,95,0.11,,,0.32,Wunderground v.1.15,2013-02-08 04:50:00,
2013-02-07 23:51:00,43.4,42.1,29.94,NNE,29,3.0,5.0,95,0.11,,,0.32,Wunderground v.1.15,2013-02-08 04:51:00,
2013-02-07 23:52:00,43.4,42.1,29.94,NNE,33,5.0,5.0,95,0.11,,,0.32,Wunderground v.1.15,2013-02-08 04:52:00,
2013-02-07 23:55:00,43.4,42.1,29.94,NE,52,1.0,6.0,95,0.10,,,0.33,Wunderground v.1.15,2013-02-08 04:55:00,
2013-02-07 23:56:00,43.5,42.2,29.94,NNE,13,1.0,6.0,95,0.10,,,0.33,Wunderground v.1.15,2013-02-08 04:56:00,
2013-02-07 23:57:00,43.4,42.1,29.94,NE,37,2.0,6.0,95,0.10,,,0.33,Wunderground v.1.15,2013-02-08 04:57:00,